GFSCGP_con_3kmhel_057.txt.gz
Helicity
215 235 116 80 105 124 154 82 62 47 88 54 15 54 28 24 -12 4 36 71 101 91 44 -3 -24 -12 -21 -30 -35 -29 -17 -15 -2 -5 4 14 8 1 1 4 3 -2 6 4
238 138 76 119 73 79 106 122 102 100 83 62 33 38 10 32 20 50 96 98 111 74 69 18 -8 -24 -23 -24 -26 -28 -17 -8 -3 12 33 44 12 13 22 10 -3 -7 1 6
179 176 82 112 90 80 58 60 124 137 107 79 42 26 23 15 6 -12 -8 30 51 79 136 93 51 -1 -8 -18 -28 -22 -14 4 3 20 34 44 39 32 18 21 4 1 9 7
136 100 63 82 66 78 68 41 96 163 194 109 58 60 26 29 -2 -42 -1 41 62 88 91 99 94 46 -3 -3 -4 -8 -1 19 16 2 3 3 17 9 8 10 10 1 13 15
160 111 116 116 98 72 67 40 60 114 152 171 157 117 50 43 19 -91 -26 19 54 100 104 134 145 139 32 10 9 13 17 32 37 -20 -9 -1 -0 -8 2 11 1 11 10 14
126 110 53 26 83 -0 83 88 55 80 97 101 90 133 36 64 16 -29 -53 -7 59 89 96 103 78 75 61 29 15 50 52 24 18 -19 -23 -8 -25 -31 -7 -2 -0 14 22 11
116 96 102 79 70 84 104 99 160 174 179 72 58 123 55 58 13 24 -13 2 49 87 100 82 103 109 99 84 63 87 99 -0 -10 -42 -32 -39 -23 -14 7 8 8 20 28 30
127 96 86 108 74 95 128 90 276 260 194 110 118 137 58 72 71 -12 13 12 38 72 62 72 83 121 140 152 112 105 78 20 2 -28 -43 -40 -26 -32 -14 -6 14 28 31 47
177 116 138 145 254 120 98 130 112 272 196 122 132 99 106 93 12 53 57 22 28 52 73 77 91 85 101 101 81 38 74 19 21 -23 33 -33 -34 -27 -38 3 27 26 31 23
161 142 140 162 147 170 169 91 147 196 186 116 106 58 32 68 25 16 20 36 23 39 48 40 92 149 64 83 90 63 61 48 20 21 8 -16 -35 -21 -10 -2 18 35 33 9
104 122 170 218 125 98 170 195 143 96 148 151 167 66 31 35 34 48 27 28 25 64 63 63 58 128 167 90 109 108 58 74 60 41 28 10 -11 -23 -23 -9 24 24 43 7
78 116 82 172 252 197 250 203 92 156 125 100 206 103 38 -15 -3 -8 20 23 17 27 68 78 62 69 96 149 209 137 91 10 88 87 102 76 70 71 -25 4 45 86 46 43
40 105 57 66 123 88 143 178 297 192 171 108 97 105 155 79 74 58 68 44 32 23 54 41 59 56 68 145 206 177 149 72 82 133 108 116 103 78 -16 -11 95 92 66 56
29 72 118 156 296 360 256 264 265 305 130 100 117 91 41 84 33 77 108 174 94 -3 1 27 51 95 131 159 208 221 167 76 103 101 110 147 142 91 58 104 112 78 106 82
55 55 74 134 125 223 254 301 323 263 275 161 116 150 105 48 28 81 19 73 141 129 20 4 50 149 175 173 185 203 225 183 132 159 167 160 161 151 144 125 119 103 102 57
59 40 54 140 94 44 117 215 225 204 236 208 223 182 112 102 3 -8 -10 44 121 146 150 103 61 73 149 190 228 229 229 228 209 181 179 173 167 155 145 139 125 125 96 44
58 59 67 58 115 108 64 94 165 132 139 169 107 161 218 98 60 57 48 55 66 86 74 88 116 70 138 159 247 225 232 253 230 196 174 176 170 158 142 132 125 97 77 79
56 49 48 70 190 86 83 131 66 36 127 195 235 234 252 56 38 24 28 64 75 96 93 71 68 66 82 126 125 174 132 223 247 196 174 177 164 148 128 115 98 102 88 53
38 48 71 76 225 196 56 114 169 205 169 217 237 318 365 256 88 40 84 78 74 66 105 85 54 64 47 90 154 241 188 212 233 183 190 182 163 131 102 87 90 91 74 63
40 38 57 151 232 203 162 299 259 336 211 221 255 343 372 298 88 49 174 143 134 114 125 110 106 87 36 79 183 279 178 180 165 124 100 79 88 87 74 77 77 85 71 38
81 37 65 55 200 160 28 261 390 305 264 265 337 384 449 421 360 322 287 195 85 53 120 143 139 86 153 177 264 195 113 108 35 6 21 63 81 88 88 83 78 52 41 33
27 -15 -0 24 118 54 18 176 329 248 311 347 395 509 593 559 527 426 383 313 197 157 196 297 322 327 247 202 171 176 118 114 67 84 78 82 105 87 59 66 49 47 45 39
25 7 12 14 5 3 48 114 493 338 364 389 448 595 564 566 555 580 556 474 463 440 403 376 254 288 251 197 153 165 139 101 78 78 91 91 89 67 74 52 40 27 25 19
91 -4 64 35 17 32 34 208 294 353 364 417 447 539 532 508 511 555 562 552 549 564 619 659 585 480 435 374 287 241 197 109 91 76 61 72 69 61 64 66 52 49 59 61
190 125 80 75 112 77 136 141 249 332 336 385 351 466 502 479 449 459 502 478 508 567 573 636 687 721 692 582 442 428 371 223 128 124 120 113 88 74 85 81 85 98 67 74
100 75 68 105 101 92 94 123 164 243 282 331 342 410 369 416 450 410 422 422 444 501 500 503 632 653 689 614 476 493 499 477 337 259 241 283 177 112 83 97 115 193 217 187

GFSCGP_con_3kmhel_060.txt.gz
Helicity
128 124 80 43 50 90 191 107 60 50 33 29 26 27 4 20 -14 4 11 28 21 27 10 5 -12 5 -6 -21 -24 -5 5 13 7 1 8 7 8 1 1 2 -1 4 2 5
152 73 51 81 84 83 76 126 105 84 60 55 28 22 45 27 17 8 0 29 27 15 25 12 -6 6 -3 -2 -20 -12 -1 9 14 19 25 17 12 0 -6 -5 -12 -4 -3 -2
99 129 57 87 88 63 47 35 101 116 45 53 119 46 49 49 40 9 -2 -5 23 35 57 42 13 -4 9 -3 -14 -18 -4 3 14 32 29 32 16 35 11 -3 -13 -13 -10 -7
102 83 84 68 61 56 68 37 79 140 186 97 58 68 54 55 37 2 -2 -6 21 39 43 68 65 31 13 22 -16 1 7 15 9 13 -3 -6 -3 -3 -4 -6 -4 -11 -9 -2
112 108 125 92 73 62 91 92 61 66 131 204 112 103 41 68 60 3 -36 -9 -2 28 53 69 86 75 44 72 54 24 33 37 32 0 20 7 7 -14 -10 -4 13 15 -15 1
85 72 129 63 79 108 71 75 103 78 96 122 110 112 91 47 40 35 9 0 17 17 44 58 70 66 65 73 72 65 81 62 28 -1 -15 16 -18 -7 -13 -11 8 0 -10 -11
21 57 42 108 116 70 93 85 176 145 163 106 99 122 91 48 52 62 48 11 29 32 45 60 71 79 69 81 85 91 98 90 5 -17 -13 -19 -18 -19 -3 -12 -9 3 -7 -10
130 71 9 42 85 88 87 122 224 210 172 100 97 114 71 33 133 38 46 59 45 48 43 56 67 88 88 83 90 92 116 101 91 8 25 70 -40 -29 -24 -31 -4 -8 0 -8
178 89 114 170 68 72 59 131 94 119 56 128 85 72 62 39 42 64 89 55 61 48 30 57 92 63 74 78 93 101 114 116 129 97 106 69 -37 -33 -48 -6 -18 -9 -4 7
162 129 92 165 170 84 157 67 144 142 210 153 129 118 85 87 92 76 47 70 75 57 36 47 60 64 60 64 69 66 68 84 118 114 91 77 -18 -23 -7 9 -7 -6 -10 -2
152 156 156 134 107 58 68 143 110 80 112 164 161 74 47 38 26 65 73 54 45 41 46 31 53 62 78 75 81 66 45 66 73 116 104 83 7 -15 24 -36 -19 -25 -18 -8
122 217 184 144 98 145 206 169 81 122 189 141 117 74 49 52 24 33 48 52 51 41 41 39 37 53 77 95 100 95 69 62 62 106 130 97 75 65 48 -31 -26 -15 -22 -18
89 136 167 118 130 118 156 155 153 92 65 74 151 154 98 13 78 32 38 56 50 67 39 33 37 52 33 73 80 97 92 88 91 79 82 79 61 53 18 -35 2 15 3 -28
95 116 152 266 227 297 233 256 221 251 188 134 80 75 34 45 67 53 90 114 105 98 75 47 49 51 39 51 78 89 76 87 106 120 75 84 90 70 42 64 66 55 68 55
70 87 102 126 177 230 277 283 230 237 272 218 88 73 65 38 29 64 40 78 141 157 80 43 32 36 49 70 60 83 59 87 75 167 132 117 105 108 98 89 82 71 68 59
46 72 96 125 153 158 198 182 164 157 189 209 230 215 49 37 104 82 66 52 97 141 135 117 60 38 35 39 78 92 86 86 100 152 163 157 135 154 148 143 113 104 81 79
48 72 73 129 87 151 201 159 134 85 77 91 121 155 168 96 62 43 33 -32 9 79 135 144 149 109 38 30 48 41 93 86 106 147 155 187 149 139 161 167 147 116 105 97
64 54 76 109 110 172 120 67 60 32 66 65 117 79 156 111 46 -13 70 62 55 31 73 104 126 124 104 73 46 52 71 85 131 151 142 159 191 150 134 149 159 136 112 112
35 57 84 75 90 92 129 128 259 264 65 89 137 122 132 150 159 3 -22 88 103 134 101 71 79 105 98 71 47 65 45 62 99 150 148 146 171 178 146 131 138 132 116 112
36 40 65 133 91 133 92 163 261 285 129 18 114 130 107 166 54 79 90 82 103 101 111 102 89 109 67 49 54 55 66 73 89 112 105 140 160 167 178 156 134 139 123 94
43 85 26 31 70 59 -9 89 169 146 115 179 142 99 76 159 253 164 244 99 74 61 143 138 139 91 86 31 27 62 90 77 64 60 61 116 124 142 143 143 125 120 104 89
-6 -23 56 27 38 47 -4 -19 115 197 315 139 271 120 156 141 260 403 381 233 158 96 154 231 220 170 111 19 22 106 154 105 74 67 77 137 122 85 100 111 90 74 71 67
-13 -85 -84 -71 -22 46 -8 44 41 145 233 288 252 263 275 312 332 430 450 428 338 217 214 367 282 269 345 167 133 120 94 99 111 107 66 54 38 1 32 44 56 59 45 29
8 -68 -80 -59 -16 14 68 63 50 131 214 332 330 359 362 409 362 402 449 466 481 438 402 415 411 503 478 526 447 256 203 131 160 98 62 32 35 38 46 53 44 49 57 58
128 101 29 42 103 49 111 124 132 232 138 206 263 290 312 392 349 389 429 464 485 488 500 613 550 573 596 562 568 577 355 301 234 153 109 104 126 98 96 102 96 70 65 51
82 51 52 57 52 44 38 125 196 137 137 101 145 281 230 370 360 369 411 434 376 419 458 579 636 641 608 484 457 511 588 304 232 235 218 181 174 149 152 113 102 114 119 145

GFSCGP_con_3kmhel_063.txt.gz
Helicity
48 69 39 19 4 7 51 12 10 11 104 17 -17 86 106 -14 48 64 37 38 34 36 20 8 -1 13 27 17 15 -2 33 58 40 29 1 6 12 15 2 -4 -23 -11 5 14
90 45 31 22 13 32 63 70 56 23 52 41 11 31 57 76 45 68 41 35 25 23 36 29 -0 8 22 29 24 24 44 64 27 30 20 16 14 -9 7 5 -15 6 5 2
57 61 52 49 54 67 54 41 39 36 19 38 31 50 36 46 55 60 41 36 22 25 56 57 32 25 27 38 24 46 61 70 41 32 39 37 24 35 -0 -16 -16 -3 -4 2
54 24 73 52 66 56 63 31 78 49 46 47 34 65 57 118 42 85 61 39 39 34 34 59 54 35 59 56 36 66 71 81 53 40 -26 -9 -7 -13 -10 1 -5 -3 -5 -10
66 64 61 70 77 52 74 32 31 64 71 74 44 59 154 34 57 81 54 55 43 55 58 96 86 75 70 85 78 79 89 81 73 35 25 42 1 -12 -15 6 86 8 -13 -9
108 34 39 49 36 60 29 65 67 47 75 121 81 50 62 92 100 80 85 65 40 65 74 74 83 75 46 73 87 95 132 105 95 65 -7 18 -25 1 3 8 43 -21 -16 -8
22 53 39 42 75 33 61 100 153 153 151 109 57 89 53 73 81 5 117 69 65 60 67 73 79 72 93 112 125 129 158 130 112 94 36 56 4 -24 42 52 4 -13 -4 -5
156 72 16 33 57 51 64 78 165 152 170 80 74 91 67 35 30 108 46 111 68 76 71 90 90 94 122 107 158 133 173 140 134 127 94 59 25 -12 8 22 -3 -4 3 -3
104 75 39 92 33 26 55 74 54 57 43 64 61 32 34 39 29 81 86 131 60 81 44 87 97 94 111 110 157 174 182 179 138 132 151 123 86 -25 -16 8 -12 16 3 19
139 174 113 74 76 133 72 51 74 92 170 162 47 41 66 53 48 44 42 47 105 11 61 63 92 92 109 85 97 136 148 177 139 137 164 148 117 58 51 79 69 -9 15 17
242 177 152 55 57 101 51 141 84 67 81 123 151 60 35 58 54 49 52 46 44 48 80 55 74 104 95 66 57 82 117 122 114 112 145 137 122 88 85 119 82 37 38 39
95 185 125 135 34 30 40 44 40 86 94 89 61 47 56 56 61 39 47 56 22 26 40 63 59 81 101 88 65 73 96 97 99 105 145 141 145 119 94 71 20 84 62 38
79 84 113 116 117 76 106 55 78 93 51 74 98 69 47 92 113 64 29 38 35 27 47 70 47 66 74 92 60 64 77 91 74 82 120 145 108 113 102 97 82 77 78 70
153 164 137 190 103 162 154 29 56 67 85 73 66 56 32 52 49 47 46 26 14 41 34 49 61 66 72 89 129 78 82 68 69 87 71 112 139 113 103 126 100 96 99 91
52 93 81 78 137 77 246 261 131 92 126 158 56 39 85 37 45 34 48 62 69 128 125 59 46 70 143 122 174 122 49 54 54 124 93 128 141 136 136 119 118 111 110 105
3 36 91 167 140 98 194 255 294 295 146 176 210 170 95 102 127 65 90 59 129 169 145 167 71 64 78 81 137 149 95 85 76 118 138 141 165 141 142 139 118 106 120 118
46 52 68 95 62 59 128 169 140 135 142 166 201 219 67 80 89 162 92 118 120 138 178 215 244 116 47 60 65 81 122 49 94 101 149 137 171 159 140 160 166 130 120 129
49 56 55 87 82 125 94 45 56 58 51 61 114 95 75 35 56 40 47 180 172 112 91 144 158 179 209 117 49 64 81 93 43 125 170 160 177 158 167 163 163 161 161 144
-25 53 69 77 91 76 72 103 151 208 197 23 34 54 101 38 28 11 35 32 113 128 107 87 73 106 158 177 192 71 86 111 46 73 124 194 201 208 183 188 187 177 170 156
-14 -25 87 75 81 87 70 105 79 126 175 163 108 89 107 93 83 35 82 -23 33 49 79 132 121 89 94 104 107 151 76 71 73 37 116 182 179 186 168 174 207 211 194 178
32 -70 40 43 81 67 42 58 75 180 172 365 344 442 290 156 75 50 57 39 1 39 44 70 152 105 78 69 59 76 65 87 92 79 96 152 157 175 170 165 161 179 181 143
-12 -22 -16 -44 43 56 81 36 80 67 140 229 250 291 394 398 140 118 123 107 107 79 55 42 149 263 222 104 55 74 58 78 147 126 103 116 137 159 154 165 160 139 165 161
-23 -94 -87 -98 -71 78 33 32 36 44 68 65 94 132 245 370 222 203 192 174 75 86 80 88 143 261 326 513 169 70 85 140 190 171 138 127 126 150 188 176 162 130 127 108
-60 -165 -80 -129 -112 35 -8 -7 22 37 47 105 57 39 145 153 195 220 274 245 136 91 120 200 212 298 378 519 579 501 217 184 209 158 141 130 153 148 154 163 133 123 104 85
33 32 -8 -45 -110 -63 -48 39 60 98 83 91 130 130 165 202 220 261 298 274 243 180 182 239 298 305 409 530 662 721 634 367 126 144 117 138 129 116 157 150 143 142 103 79
13 10 8 13 8 41 24 52 107 132 115 87 103 189 208 186 237 234 289 286 271 255 208 212 303 367 457 486 615 727 752 592 340 190 172 162 150 117 116 75 136 266 173 156

GFSCGP_con_3kmhel_069.txt.gz
Helicity
89 104 55 29 17 33 61 122 60 7 -3 -4 277 328 189 40 214 285 111 153 56 -45 -76 -102 98 192 284 219 157 126 77 41 1 -54 -50 35 -32 -12 19 10 4 18 23 3
106 51 42 38 35 44 70 147 143 71 48 40 313 249 188 87 99 79 170 102 93 -24 -104 -76 17 224 292 286 183 157 103 82 44 -39 -53 -6 -11 -55 2 -2 7 -3 22 13
90 73 -25 6 29 77 91 103 124 133 96 -67 387 310 146 115 301 203 270 232 78 97 -9 -85 26 196 290 273 196 157 139 116 98 -11 -85 16 41 -38 -28 -24 -2 -34 40 16
67 70 41 103 56 42 82 53 101 146 95 42 30 40 130 245 220 156 275 -11 82 -25 109 -19 107 169 292 253 215 157 183 110 99 27 -75 -69 -39 -38 -15 27 -9 17 15 21
60 49 109 89 56 -1 46 46 44 23 62 57 21 56 7 169 98 156 333 22 47 106 83 85 75 213 295 257 230 172 202 102 75 47 -32 -65 -25 -32 -13 26 22 5 -10 -11
147 44 48 68 52 34 16 66 98 66 43 57 35 99 11 100 134 208 240 56 -29 22 -40 131 246 234 267 288 234 207 204 125 94 38 -20 -57 -41 -61 -11 28 37 9 11 3
97 104 83 92 140 73 48 86 139 118 117 39 77 77 102 98 142 361 349 10 0 222 166 182 296 248 221 271 267 223 209 169 109 56 -1 -52 -69 -71 -11 41 41 47 20 8
158 237 65 73 99 134 120 71 137 98 79 20 52 64 44 106 162 309 273 10 101 254 363 115 380 272 237 301 321 281 217 188 149 100 26 -26 -85 -72 -44 49 52 66 37 14
217 208 142 127 84 47 85 131 62 81 68 82 90 42 80 33 235 279 163 115 127 283 353 162 97 364 300 285 335 338 248 186 179 131 87 23 -45 -70 -70 -30 44 -9 41 13
112 119 81 64 160 125 72 63 145 124 91 71 111 119 44 -6 232 287 220 381 437 390 278 83 153 155 190 255 323 322 325 248 189 135 82 74 38 -28 35 -13 -5 47 25 70
101 54 30 50 188 204 197 110 72 50 119 96 99 43 -76 -31 57 54 437 443 631 419 312 2 38 194 55 158 120 338 355 295 203 149 101 78 55 24 51 43 -8 57 55 82
164 84 52 53 129 182 159 156 134 132 134 124 89 86 -104 -61 -64 -101 139 350 441 365 331 312 81 -29 -100 122 21 261 336 351 270 197 147 118 111 85 23 73 45 37 55 79
219 146 23 15 27 75 196 153 124 106 84 150 183 93 -13 -13 16 84 249 166 157 271 249 479 218 23 95 3 95 133 311 339 307 229 185 146 118 111 81 45 106 65 26 -19
69 79 85 64 130 216 257 419 262 218 164 132 120 125 48 -102 -54 16 78 203 189 144 289 276 90 -79 4 56 130 79 231 306 311 260 216 177 134 111 121 103 90 145 86 65
133 74 87 49 48 73 186 337 340 415 333 154 104 190 67 -8 -99 -118 -43 44 432 73 161 159 68 -1 10 170 104 178 22 263 252 247 230 193 161 127 107 106 111 105 129 78
120 96 107 96 111 139 149 207 295 354 386 313 205 194 -48 101 125 -96 -188 -24 96 327 392 102 170 84 158 194 243 -106 -17 223 230 237 226 210 178 151 123 114 116 120 122 145
180 143 116 59 84 109 129 189 254 296 372 336 193 143 -47 26 111 -53 -88 -84 -73 116 182 278 313 97 340 240 -32 -103 -70 54 304 238 245 210 211 186 170 150 144 120 102 105
58 113 102 43 20 25 44 34 110 187 263 17 65 41 -45 -31 61 -11 -98 -96 -34 -17 34 247 258 198 82 -4 53 113 95 214 191 202 253 260 244 224 209 188 173 143 122 105
-43 28 102 59 50 50 32 48 50 183 195 41 69 183 71 90 77 58 266 46 -125 -80 -77 -60 92 121 135 213 270 149 116 14 28 147 137 301 305 245 226 211 199 197 173 143
7 -56 -14 109 64 53 23 67 129 45 210 133 147 205 208 96 116 255 319 64 -36 -114 -136 -76 -82 17 90 35 139 236 105 -93 -55 -44 2 397 344 295 244 251 230 229 211 173
4 -11 13 -15 91 51 93 91 21 28 57 88 103 123 127 115 133 215 331 210 113 13 -83 -133 -111 -110 41 45 5 173 34 126 -6 104 20 305 365 327 323 276 253 237 218 202
32 20 6 10 18 70 198 102 98 82 53 44 39 -4 73 103 145 111 146 173 92 61 -44 -95 -113 -131 69 33 -55 21 137 -58 61 150 91 103 255 288 341 330 290 230 218 199
87 43 15 28 45 86 147 203 179 84 92 46 22 -4 11 4 29 77 9 141 132 108 68 -131 -120 -109 -22 33 66 37 75 -10 81 208 201 121 165 252 254 302 286 247 204 195
32 50 19 31 138 31 47 94 81 60 19 41 26 15 -38 -41 24 21 31 7 -11 17 -14 -49 -140 -136 -78 -43 34 21 42 49 64 138 196 109 129 196 243 304 303 287 227 199
77 14 -26 -5 9 53 123 96 54 18 -4 1 3 -12 1 -11 41 53 -15 13 34 19 -32 -53 -108 -118 -97 -8 0 9 -15 49 63 119 122 100 142 208 236 289 320 284 235 230
108 98 44 1 -9 4 21 29 27 23 59 79 59 26 33 39 57 62 3 -21 19 62 54 -12 -34 -59 -79 -9 55 53 21 38 64 96 158 106 130 207 268 280 342 482 352 197

GFSCGP_con_3kmhel_072.txt.gz
Helicity
133 139 91 63 52 34 71 63 30 46 108 41 164 340 285 94 37 104 131 21 -70 12 -93 -81 79 214 215 204 251 217 109 12 23 58 25 -15 -35 -20 -31 -34 -1 13 -6 4
212 73 47 57 46 41 69 102 113 78 26 30 89 197 233 104 34 112 162 53 15 -48 -66 -72 75 161 293 264 225 188 109 33 -6 28 -29 -11 11 -25 -5 -21 -1 10 4 2
102 58 74 49 59 68 80 96 140 165 105 36 93 194 192 124 86 93 173 113 57 -60 -24 -76 65 197 277 277 252 192 109 42 11 -1 -32 -8 1 -67 -31 -19 -6 5 7 3
87 109 129 143 120 88 100 54 162 151 41 105 26 88 59 116 134 103 131 190 173 -138 -85 3 106 211 228 291 276 260 170 81 -6 -16 -17 -21 -40 -38 -32 -24 -27 -4 -9 8
109 137 109 107 109 116 163 79 140 94 51 46 80 100 85 289 242 206 183 60 88 -46 -53 -28 180 219 266 303 314 291 225 138 16 -19 -47 -37 -53 -46 -43 -30 -24 -20 -11 12
48 31 110 90 79 36 58 142 72 64 48 86 25 82 75 46 208 270 256 168 225 -42 17 10 113 284 338 321 335 320 240 163 125 -12 -53 -55 -56 -41 -48 -12 -24 -34 -29 -12
100 65 69 58 108 82 73 163 179 137 137 46 15 71 56 6 45 284 449 273 150 47 2 -5 134 360 346 433 394 338 254 176 160 28 -40 -57 -48 -61 -35 5 11 -9 -29 -5
131 198 214 156 132 120 84 92 146 124 88 89 40 47 39 39 15 146 291 284 184 99 245 154 178 354 412 438 428 385 293 206 168 129 1 -45 -60 -70 -42 -23 5 24 16 18
171 172 164 161 244 182 171 140 61 87 98 135 118 117 74 0 87 63 217 233 293 308 346 210 264 303 371 378 435 421 360 254 219 146 71 -19 -54 -81 -77 -14 8 13 39 21
116 141 98 173 132 241 211 133 179 160 61 79 126 105 70 31 19 36 138 143 255 315 450 347 405 368 363 318 339 286 398 344 272 218 106 58 -27 -57 -75 -49 -7 -14 -5 6
92 8 82 59 102 239 277 261 256 167 136 104 109 92 -103 -89 -129 -58 14 131 227 200 311 368 455 383 377 286 264 324 289 335 303 241 210 104 31 -37 -51 -54 -32 -13 -5 -17
59 10 14 -33 -19 -2 29 106 171 304 355 244 128 147 28 -42 -60 -8 -30 23 135 148 258 201 230 271 294 389 353 273 267 281 307 310 268 126 116 40 -33 -67 -68 -48 -24 25
108 49 42 90 58 81 103 177 138 176 243 227 169 171 71 -14 64 -36 26 17 59 100 162 34 52 97 157 233 206 224 217 258 281 306 291 251 132 81 0 -48 -69 -45 -41 77
67 69 25 37 44 84 117 128 132 102 226 246 254 368 182 94 97 144 1 65 36 89 104 168 83 81 -53 2 107 188 199 207 270 294 302 215 231 65 73 51 15 -23 -18 -15
20 38 78 67 68 63 52 87 133 199 170 158 280 319 233 60 64 33 37 -55 220 241 116 109 93 -46 -129 -80 -24 167 96 152 279 301 321 268 218 214 171 113 76 61 27 -18
82 58 73 83 74 52 24 64 69 129 124 224 248 237 180 154 3 84 89 -15 -38 247 365 261 99 -29 -122 -40 13 -5 107 174 192 236 261 360 270 251 218 194 165 137 106 76
104 93 70 38 101 116 34 45 68 41 38 7 156 186 161 233 177 177 256 140 115 43 98 184 234 242 31 -10 22 46 67 170 201 111 133 221 257 212 224 189 179 156 130 101
62 84 109 67 128 67 56 55 60 61 23 7 70 196 179 170 150 246 356 212 153 161 87 55 62 214 213 198 181 119 104 46 70 89 64 164 279 270 211 171 182 179 169 132
29 86 121 158 151 110 48 27 62 49 46 70 77 144 189 213 144 178 278 276 205 162 139 129 108 54 165 225 184 50 70 95 93 142 142 103 118 164 311 211 137 171 201 167
84 82 153 210 215 130 70 87 105 50 57 92 121 131 103 151 114 170 204 173 186 155 39 44 49 45 123 80 104 83 117 64 -8 54 143 110 84 -4 164 225 238 203 202 185
54 96 119 139 170 107 142 126 76 51 35 82 75 94 87 14 46 188 82 79 76 81 -1 -34 -6 -41 -8 92 147 101 123 93 130 130 77 -21 -24 -27 181 244 292 248 232 191
68 84 113 136 143 125 194 138 130 147 78 21 18 54 55 60 131 106 0 37 2 74 64 -65 -27 1 -10 0 77 166 172 71 46 320 -42 -101 -85 -38 80 211 281 240 256 221
23 33 46 78 109 99 15 82 98 91 43 45 3 24 42 41 20 52 68 -35 -31 -30 42 -11 -44 -36 28 36 -5 91 70 146 102 -32 -6 -60 -65 -25 -18 120 219 314 308 271
47 67 32 37 52 34 86 57 37 32 2 32 50 20 -3 -16 12 14 -39 15 -35 -52 -5 49 36 87 52 126 54 2 159 108 64 -20 93 -59 8 23 -2 155 242 286 325 306
72 85 85 67 13 14 41 56 34 59 84 49 23 25 23 30 19 9 0 -15 0 -18 -18 -22 4 37 183 95 125 36 5 51 107 72 99 22 17 9 27 138 270 283 258 334
116 106 140 86 64 50 24 35 7 31 41 37 26 57 93 69 44 31 35 15 7 20 59 3 -19 -8 30 100 96 56 9 11 68 82 51 101 81 69 49 113 185 367 287 207

GFSCGP_con_3kmhel_075.txt.gz
Helicity
174 155 62 42 41 47 87 58 29 126 101 61 85 121 193 118 32 30 85 66 111 68 21 95 113 162 163 134 119 93 45 -1 3 97 63 -8 -34 -33 -25 -10 2 -0 -0 9
224 80 50 65 58 41 59 39 36 177 87 96 65 54 158 125 67 33 18 34 47 37 25 180 111 152 201 210 180 135 103 94 54 114 105 17 -20 -24 -34 -30 -16 -5 8 14
142 72 60 65 78 69 55 -22 99 159 164 137 65 -0 36 23 15 16 -44 -58 -49 37 146 229 227 201 144 211 244 215 151 122 56 109 103 112 81 4 -32 -28 -10 6 7 17
101 50 90 90 58 66 74 11 123 150 164 204 76 94 45 -69 -20 21 -9 -74 -53 -28 -0 268 230 292 226 166 259 236 182 122 44 51 68 39 3 1 -5 -5 -12 2 3 2
122 159 97 112 70 107 89 108 140 159 156 155 131 156 65 5 30 115 90 35 -2 -54 -47 166 222 203 236 253 207 225 191 124 22 44 64 31 1 -11 -5 -14 -19 -11 -5 1
76 85 116 81 88 98 139 163 159 194 173 185 154 143 109 37 127 178 210 130 110 46 -46 47 183 176 219 267 226 217 200 125 49 53 62 61 29 3 -25 -27 -15 -11 -11 -15
118 113 146 117 135 127 117 239 225 188 214 154 115 167 51 45 103 119 321 297 177 91 1 -3 187 162 182 238 265 240 218 157 77 53 56 50 21 -6 -28 -34 -11 -8 -13 -18
158 202 174 209 144 171 165 143 199 173 176 224 174 122 121 90 133 98 101 199 156 191 34 77 181 246 177 244 276 328 257 198 129 93 27 27 2 -13 -17 -37 -32 -11 6 11
161 185 159 122 181 127 160 229 141 156 251 248 208 189 88 164 159 220 124 130 153 116 89 83 131 228 223 213 269 345 359 258 196 132 111 29 12 -1 -16 -17 -19 -10 12 23
95 169 160 209 152 243 207 224 225 234 181 177 204 179 277 304 258 215 230 190 133 85 112 62 90 183 236 262 256 296 392 399 266 194 141 91 18 11 13 -7 -0 -10 7 22
55 96 154 113 184 257 305 284 257 211 216 167 189 235 199 175 79 189 149 196 155 127 175 142 102 202 217 238 210 258 281 306 332 257 212 128 147 169 165 34 5 -0 8 -9
82 10 58 78 90 4 116 245 241 276 358 344 265 244 274 358 173 94 130 177 131 142 172 156 173 216 303 275 250 318 317 313 300 317 277 199 152 174 173 120 16 27 6 15
43 49 85 39 104 150 151 154 154 193 314 416 377 274 321 357 333 140 113 189 166 101 156 207 307 217 263 305 247 205 207 236 268 248 257 240 199 174 153 121 143 86 26 5
57 5 7 99 113 99 109 72 53 109 234 315 296 297 340 368 325 221 127 129 131 140 189 185 249 259 200 240 179 192 167 162 197 208 212 224 225 194 153 129 135 156 121 53
-40 4 22 14 24 81 120 106 83 49 93 154 209 223 194 260 277 237 140 77 169 238 149 216 132 113 125 98 132 135 107 96 100 156 184 179 183 181 181 162 145 157 153 119
39 25 59 68 52 41 34 49 24 19 45 111 133 159 132 207 275 350 304 168 126 250 252 300 238 126 94 109 90 17 38 85 127 123 120 175 191 178 148 167 182 156 149 159
70 56 70 81 64 40 52 74 70 64 91 56 93 123 101 164 271 318 343 258 219 176 275 247 289 231 210 83 86 109 126 41 111 73 92 144 185 192 156 175 194 163 137 130
100 86 86 77 96 101 69 50 69 89 128 221 138 198 189 126 117 188 282 248 230 214 144 234 246 248 231 213 104 138 157 114 88 91 99 104 150 175 189 189 192 185 161 144
54 79 100 109 97 81 49 95 167 148 105 220 159 174 245 242 52 127 189 254 182 126 83 68 143 163 188 188 167 187 150 91 119 127 100 108 116 153 162 203 186 185 181 156
105 102 109 128 112 49 63 57 117 132 143 246 182 150 158 190 132 143 216 246 205 133 99 70 75 86 167 114 127 192 247 159 178 182 118 156 132 152 168 161 186 192 197 185
101 114 117 118 115 124 161 139 122 214 182 162 146 106 96 61 72 148 216 170 131 87 68 96 69 43 62 69 72 78 207 229 223 188 204 115 140 129 105 67 107 177 198 191
68 90 83 117 131 101 134 120 163 157 148 118 89 74 52 50 79 108 84 128 141 118 76 39 95 84 62 -9 -16 130 29 69 126 142 130 99 111 72 77 55 61 151 219 233
26 38 43 60 61 97 74 44 63 73 67 36 15 32 40 23 -8 118 118 59 82 77 60 49 29 123 164 101 -122 7 90 133 94 89 48 88 132 87 92 46 18 156 246 234
31 50 52 60 45 56 27 49 89 69 47 47 55 41 67 37 25 -23 76 64 18 43 62 14 40 62 99 204 110 -142 -41 -37 91 117 80 6 85 145 85 113 61 145 204 224
79 123 78 53 17 40 42 39 30 27 58 70 65 69 49 21 21 36 50 38 25 25 30 28 8 27 73 89 197 108 -209 -156 -119 -46 63 18 25 118 127 99 52 99 180 252
148 134 140 75 71 91 48 51 44 24 2 20 41 56 62 44 55 83 77 48 25 47 57 52 42 33 56 70 92 131 65 -140 -247 -154 -46 32 -17 26 102 119 73 82 102 138

GFSCGP_con_3kmhel_078.txt.gz
Helicity
177 159 56 54 81 107 119 117 137 132 106 84 72 86 67 98 13 3 106 170 150 23 -51 -16 26 16 19 4 4 -4 -13 -27 -6 -10 -33 -29 -12 -16 -11 2 14 17 7 -0
192 63 56 69 77 62 71 69 101 152 101 80 59 38 13 151 37 51 64 86 157 86 -29 -39 4 38 40 59 49 38 12 10 -4 -8 -12 -13 -33 -14 -13 -9 1 7 10 -0
126 63 82 83 73 74 65 32 81 148 166 119 55 29 30 36 51 13 18 -23 37 138 67 9 16 55 55 64 77 79 87 70 26 5 34 125 121 87 4 -5 -6 -3 2 -0
100 97 98 86 74 74 59 1 86 180 211 150 53 75 63 22 -9 6 -30 -13 42 36 105 76 75 67 84 83 89 128 95 96 81 70 89 102 38 9 5 2 5 2 6 11
119 109 108 96 43 51 49 58 102 155 185 187 147 83 71 26 19 58 43 -15 -31 36 58 140 94 120 110 104 59 135 157 100 85 110 111 103 22 8 11 6 -0 6 7 5
125 141 113 64 66 49 100 144 205 192 190 187 154 109 127 87 100 47 55 86 10 89 -12 128 161 107 83 117 84 83 167 132 77 125 111 119 81 19 19 2 2 2 4 1
159 171 196 107 152 85 136 174 236 257 271 168 185 156 132 176 142 86 69 152 148 43 113 214 222 130 86 108 141 107 119 123 101 112 111 99 101 82 18 -14 -6 -9 2 13
193 236 184 191 164 124 152 149 198 219 220 275 224 170 204 207 212 200 81 74 85 88 113 147 202 187 149 128 161 166 128 105 139 136 70 67 49 94 60 9 7 -8 -1 21
173 202 192 176 193 146 140 191 139 187 254 270 272 319 189 445 377 392 286 153 105 76 42 95 192 183 174 159 143 184 168 143 136 170 111 40 40 46 64 10 22 14 -6 -9
142 229 190 229 207 192 150 165 209 256 237 321 339 339 336 439 434 440 401 314 250 67 67 74 118 224 187 123 185 187 195 220 215 182 195 119 52 31 40 56 73 24 18 7
109 171 224 153 278 315 260 250 243 215 232 239 286 300 279 325 339 345 366 357 302 165 30 90 73 144 189 173 152 154 144 183 188 191 176 184 126 93 41 35 87 74 54 43
111 94 183 154 134 221 237 273 232 224 221 270 261 239 209 232 317 287 322 270 231 141 138 165 133 98 179 180 165 161 171 170 210 239 249 189 152 160 70 17 108 133 72 76
71 103 106 153 153 137 217 310 248 248 290 284 248 235 281 304 289 288 236 190 140 186 212 225 211 170 131 180 170 163 160 159 175 212 203 191 183 131 100 58 88 128 131 105
52 55 74 74 108 133 159 221 235 190 213 207 249 284 332 319 276 286 276 156 106 132 226 257 222 188 114 108 86 120 150 142 146 165 180 187 184 177 131 119 135 119 128 141
44 20 53 114 129 139 113 140 186 200 174 176 130 150 180 193 162 122 136 179 159 132 165 270 393 285 217 126 81 48 57 123 174 165 153 147 156 159 147 131 108 125 139 127
38 25 35 65 116 136 149 155 142 172 186 162 126 79 73 30 42 122 146 208 209 164 164 165 242 295 300 212 203 151 90 33 100 125 147 156 154 153 140 126 137 140 104 129
55 47 53 37 94 93 138 137 107 120 134 168 165 128 142 134 140 130 140 153 207 243 217 187 176 204 244 241 190 189 163 129 73 60 133 166 163 127 123 135 147 144 139 138
93 109 99 70 102 101 104 111 80 66 92 86 63 85 122 128 150 168 192 232 208 204 212 210 183 158 169 251 243 237 207 161 106 63 34 105 137 129 125 122 133 129 134 145
106 93 111 107 146 155 116 137 122 118 81 103 96 136 159 173 130 113 171 228 235 201 164 134 147 146 94 146 213 191 181 193 290 271 203 143 100 122 147 135 122 113 140 150
113 114 112 107 121 112 98 76 81 86 91 154 146 141 129 184 127 108 238 191 197 192 174 134 129 129 129 52 108 161 154 160 205 257 252 235 190 174 108 159 158 146 115 128
99 103 87 89 93 69 61 79 101 119 101 111 134 117 106 97 108 140 113 120 97 94 123 127 101 91 95 106 48 109 164 147 120 161 195 205 191 170 169 128 110 160 150 128
38 57 56 92 88 38 43 69 112 123 120 94 84 89 90 91 83 105 122 66 43 99 93 84 73 99 80 53 61 51 95 149 123 99 105 141 157 106 126 128 109 91 82 123
24 37 32 31 20 42 36 22 30 49 63 76 46 24 67 74 79 74 73 97 57 -2 31 44 42 64 86 37 -2 59 28 58 103 88 65 48 74 87 111 74 60 75 66 95
41 75 63 57 55 55 41 45 58 68 42 50 55 61 50 61 66 61 39 14 35 3 -20 -15 -6 32 50 34 6 -7 29 53 51 81 96 74 36 60 33 31 33 4 32 69
70 100 79 52 30 50 52 51 17 -15 -7 5 21 30 59 85 85 93 96 83 49 21 -27 -41 -27 -11 17 28 18 -24 -70 -3 19 3 66 5 31 73 24 38 20 35 80 60
127 145 141 62 44 90 72 65 60 45 24 39 77 73 43 57 71 66 55 57 69 18 16 13 -7 -27 6 53 11 -30 -30 -41 -36 -32 -105 -56 -8 74 79 14 55 88 62 79

GFSCGP_con_3kmhel_081.txt.gz
Helicity
130 92 31 61 140 177 148 141 130 152 110 61 60 25 6 -12 -37 64 43 33 24 -7 -33 -33 -31 -20 8 -19 -10 -14 -11 -21 -2 -7 -11 1 9 -1 -4 3 10 7 9 10
131 36 41 72 103 124 141 149 139 133 117 76 55 34 19 18 17 24 93 47 20 3 -47 -44 -45 -30 -32 5 -2 -12 -7 -8 9 3 13 1 0 0 4 0 3 16 15 14
63 54 69 77 77 63 79 107 127 132 109 84 45 28 13 18 -26 -15 40 74 12 6 -16 -53 -47 -31 -34 -31 17 25 25 -5 9 6 -14 17 17 23 15 2 -7 7 9 17
69 75 59 81 60 51 51 57 106 117 131 79 94 51 20 3 -5 -31 -3 44 70 27 -18 -29 -42 -40 -27 -11 5 61 48 38 26 0 9 9 8 20 16 -2 -6 -5 1 10
91 88 64 69 55 48 80 66 109 139 139 124 73 73 79 31 32 24 -9 10 22 47 21 16 -1 -28 -28 -8 10 26 62 48 45 24 32 27 10 14 19 2 -5 7 1 -2
116 115 103 69 52 36 71 116 163 166 167 97 69 103 108 127 178 148 83 32 32 31 31 55 2 6 -22 -36 1 25 57 64 51 40 70 55 34 9 13 2 0 3 0 -7
140 161 152 117 100 69 104 136 230 193 154 98 124 101 131 177 192 159 110 55 31 17 45 59 58 30 -23 -22 -18 0 49 70 40 56 104 85 63 21 10 6 -1 -5 -7 -9
147 163 205 213 165 127 88 115 210 209 169 135 162 73 145 198 175 163 133 127 106 15 -21 28 65 114 62 8 17 31 25 77 62 58 99 84 76 45 14 10 7 2 -4 -16
169 206 182 157 199 191 161 142 142 190 213 130 183 190 137 261 258 250 236 209 145 90 22 17 49 90 109 66 27 45 57 68 87 76 84 79 74 77 25 13 17 0 0 -13
146 185 213 190 154 160 187 157 172 200 177 162 223 241 233 330 347 308 309 268 204 95 10 -6 -2 51 80 73 79 59 51 83 118 111 95 89 58 65 62 17 26 15 9 -3
144 200 187 163 203 264 207 175 183 189 240 194 218 241 286 310 300 275 282 259 247 164 110 34 16 -13 56 51 65 86 83 61 67 92 123 96 65 27 52 43 23 8 14 6
125 152 221 189 211 252 233 186 206 158 182 231 219 190 230 247 232 229 237 260 234 233 228 235 122 28 -8 15 36 52 73 73 67 108 149 165 138 90 38 50 43 20 7 18
94 139 174 173 151 147 211 229 224 179 235 199 172 177 205 179 196 173 184 196 178 187 249 291 338 185 62 47 35 32 51 42 44 51 89 124 137 128 71 49 55 48 26 14
79 111 149 163 156 164 174 203 214 232 183 163 249 167 235 257 206 180 172 144 136 133 173 224 265 295 286 163 113 68 42 29 39 24 27 33 85 136 122 77 64 71 59 47
96 87 85 129 141 158 152 179 191 193 196 248 181 220 260 251 234 200 126 122 125 122 136 162 203 232 230 220 212 194 121 73 66 29 34 21 47 57 108 112 80 65 67 63
113 63 61 127 140 148 163 169 180 167 154 164 187 209 197 173 142 149 151 131 146 160 169 159 163 181 235 197 174 175 184 138 128 64 87 76 70 61 77 87 95 97 79 60
85 79 98 96 117 121 120 140 155 174 167 158 146 162 134 146 145 143 128 127 137 160 180 197 204 202 187 199 198 169 190 159 103 73 69 58 90 79 79 90 86 79 67 59
70 94 97 47 62 90 95 165 177 187 195 165 153 144 143 132 118 74 118 149 166 180 180 193 181 190 209 194 177 191 133 168 182 90 77 55 82 102 80 73 56 65 67 62
113 107 104 64 58 105 78 120 134 140 116 123 104 123 144 150 97 33 135 156 155 168 141 124 137 143 134 163 190 190 152 143 145 160 119 75 118 73 37 78 89 72 61 55
100 102 116 106 124 80 121 89 82 38 80 106 117 117 134 161 99 107 188 148 130 124 125 129 100 102 109 117 125 159 170 157 165 225 263 182 100 110 117 80 83 85 66 63
87 110 92 103 118 96 70 74 69 99 121 79 99 99 110 114 126 132 116 100 70 67 92 113 105 62 82 95 116 131 127 140 155 180 193 264 191 147 107 71 104 127 120 127
46 57 74 87 87 87 81 105 101 114 80 72 76 79 80 79 76 82 80 85 80 48 60 78 89 93 44 37 65 99 127 85 102 141 195 192 198 166 128 73 65 93 135 118
31 51 49 37 59 64 40 52 38 30 38 42 46 44 45 55 73 97 93 74 70 68 38 36 43 89 91 28 22 52 77 76 58 76 100 161 198 166 195 144 99 82 60 69
25 37 34 55 38 24 31 20 23 15 13 21 21 25 33 31 38 31 39 60 65 82 74 61 42 21 66 70 23 27 41 31 63 67 67 53 104 123 76 88 177 124 97 128
51 91 62 41 58 86 38 29 44 33 15 2 15 28 31 38 42 22 23 37 48 69 87 89 63 39 10 35 47 24 6 -4 3 50 89 64 37 81 95 50 35 161 111 158
123 111 132 73 73 109 73 71 76 38 -7 -18 -10 12 40 32 28 30 21 11 15 41 77 115 99 71 37 -11 -3 16 12 -14 -33 -30 18 66 53 74 77 91 22 7 56 99

GFSCGP_con_3kmhel_084.txt.gz
Helicity
59 63 27 36 67 129 43 37 53 109 48 17 31 34 1 -1 -10 -5 3 -10 4 -20 -18 -1 14 17 19 33 21 22 15 6 10 1 2 5 13 1 5 7 -2 -1 4 2
79 41 41 60 136 161 93 64 108 99 84 45 21 14 3 34 11 -18 39 -14 10 -5 -12 -24 7 23 5 -10 18 13 4 -3 7 -0 3 19 26 9 -1 10 2 6 7 6
51 61 75 47 53 76 84 34 82 54 69 73 25 32 24 4 -27 -14 34 13 7 7 -3 -10 -20 15 6 -21 -28 -3 -5 -18 4 20 24 12 17 10 -1 2 5 6 12 11
80 61 43 41 35 36 65 148 119 102 48 32 30 77 59 46 20 8 18 20 7 36 -13 -4 -12 -12 -2 -26 -49 -27 -6 -0 -2 -4 8 13 15 14 6 2 -2 -5 3 7
63 53 50 47 34 49 61 91 103 104 78 79 31 50 42 26 39 23 5 3 20 14 29 -3 5 9 -6 -32 -43 -30 -12 8 11 -15 20 16 28 19 16 6 7 -6 3 8
42 31 35 56 65 62 81 94 128 110 47 70 34 60 80 89 110 73 32 30 37 21 -7 4 4 13 -14 -24 -38 -38 -15 7 25 -17 -2 29 22 27 17 12 2 -0 -3 -7
56 78 127 145 65 66 62 63 109 84 84 58 90 95 122 112 149 161 132 73 20 62 3 -10 -1 11 -10 -19 -21 -27 -17 9 19 21 -2 47 28 14 13 11 12 10 -1 -9
88 104 126 114 130 80 57 26 73 87 70 78 101 99 104 106 125 139 137 98 118 29 19 40 -23 21 6 -27 -8 -4 4 6 18 17 64 48 26 19 16 12 16 11 5 -17
45 122 118 132 150 193 58 85 94 83 42 46 105 199 93 142 164 160 155 135 125 56 44 24 29 -0 -2 8 2 -11 5 23 21 15 38 44 34 28 15 22 8 13 15 13
110 79 140 122 110 97 168 64 114 126 80 74 105 50 150 160 210 209 229 213 210 91 10 44 -11 21 4 -2 24 26 26 35 25 23 39 44 37 33 31 27 16 20 25 12
113 91 89 95 184 155 116 118 122 68 99 45 110 134 188 197 218 236 232 203 192 245 208 42 57 82 41 12 15 22 12 25 29 36 31 38 41 35 32 40 27 16 14 17
134 84 67 138 84 129 189 192 158 109 100 116 106 165 177 220 273 214 218 209 191 216 261 332 513 221 25 16 40 28 47 33 21 29 38 36 40 41 33 37 41 23 14 7
124 87 81 75 59 102 149 135 157 159 135 60 103 93 135 192 204 228 218 184 176 174 200 231 285 305 341 385 200 86 55 54 49 37 34 32 41 43 50 36 30 38 30 16
73 80 150 111 150 166 103 137 158 179 95 63 102 65 113 180 216 203 179 165 136 154 165 166 202 233 234 269 265 310 308 176 92 78 46 41 39 50 50 53 48 33 38 38
136 91 108 84 115 126 121 134 167 209 226 197 123 104 121 147 187 209 162 148 150 164 164 149 139 142 185 177 207 195 205 214 255 172 84 65 49 45 47 57 53 48 46 47
108 101 91 77 75 100 100 84 108 135 172 243 169 197 160 201 164 172 177 171 169 151 151 140 119 103 103 124 178 199 195 188 188 142 134 120 92 79 56 61 56 52 55 54
120 61 52 59 82 91 79 72 90 122 148 156 121 184 171 184 204 214 198 189 189 185 160 147 137 128 128 125 114 112 178 216 178 259 196 161 150 150 120 91 101 86 82 76
113 98 117 104 92 82 158 144 179 141 140 187 233 209 228 197 155 116 144 166 193 197 201 181 162 156 137 117 114 114 87 118 187 255 248 260 238 213 132 102 116 109 119 128
97 89 135 115 64 104 46 57 106 98 105 163 134 133 143 142 100 82 137 159 165 186 180 165 158 155 138 128 109 97 106 102 63 159 193 163 135 157 152 150 119 94 110 116
68 111 95 85 103 64 138 89 126 160 101 121 132 124 133 137 92 160 118 127 128 120 114 126 126 127 123 119 116 101 83 97 107 119 129 133 112 154 174 146 122 102 84 87
58 72 66 76 98 124 120 87 102 162 176 86 108 110 122 145 200 175 104 86 62 55 66 74 79 92 94 103 113 126 94 75 77 86 111 115 136 134 144 118 116 93 59 85
44 65 79 89 104 101 68 84 138 162 88 76 79 85 96 102 97 110 109 98 82 75 62 50 44 46 62 59 82 118 122 95 67 65 80 103 122 140 121 181 197 178 135 87
26 43 65 72 125 80 46 171 121 100 82 67 68 64 64 65 71 72 84 92 93 86 74 62 45 46 39 50 47 56 107 105 83 63 63 67 100 124 152 138 148 179 153 146
1 14 20 46 33 40 57 60 59 59 63 49 36 26 27 49 63 77 78 83 83 90 97 97 102 83 47 43 46 40 41 81 93 71 50 35 29 28 88 107 111 117 136 125
28 44 34 27 30 42 35 47 45 41 34 28 21 18 37 38 51 63 75 85 94 69 51 68 95 115 127 112 57 37 42 53 63 73 66 55 42 10 -4 46 62 75 70 80
61 50 79 69 38 45 65 63 61 46 36 34 30 26 16 23 46 51 59 69 72 68 42 30 42 69 84 67 68 69 39 44 58 55 63 54 72 47 30 -23 28 -1 -36 1

GFSCGP_con_3kmhel_087.txt.gz
Helicity
37 52 38 27 33 -3 -4 3 55 77 27 0 27 54 44 4 -47 14 -1 7 26 -7 11 37 7 20 38 46 42 36 32 27 -7 -4 -8 -18 10 -4 4 26 19 -4 1 6
64 47 21 8 24 50 63 6 23 117 38 0 35 50 22 -10 16 10 4 13 13 -20 21 29 24 26 30 48 46 41 30 27 -7 -10 25 10 7 -7 15 13 -1 7 -7 5
63 40 11 33 25 68 29 23 100 43 29 -6 14 61 46 61 33 16 17 -12 11 5 53 64 26 29 27 52 46 38 30 30 -20 32 25 13 30 -5 3 23 20 15 -7 8
51 21 32 58 33 37 23 20 64 -12 14 15 -11 67 49 65 45 19 30 19 1 29 83 85 72 24 22 49 20 30 19 12 -10 30 -31 -17 5 -6 9 18 10 34 1 -1
48 38 51 51 28 20 18 61 55 53 10 18 -13 77 140 70 50 23 40 -12 -3 -14 0 42 57 21 -13 49 18 13 3 -2 -5 -28 78 -12 25 57 3 146 37 42 10 1
21 37 21 15 10 17 53 72 52 21 29 43 17 17 50 45 21 29 36 8 6 65 -27 -22 40 64 -47 60 23 9 1 -6 -13 -3 -24 34 17 24 37 30 21 13 29 30
52 17 11 54 22 39 54 56 69 73 61 33 6 78 165 123 177 114 60 9 15 43 143 27 13 7 12 6 28 35 10 -15 -14 -5 -4 7 0 49 30 28 11 -36 27 32
53 79 78 50 48 48 31 0 39 84 56 28 21 116 151 88 100 146 185 112 60 6 0 88 54 -28 19 -11 33 20 36 4 -11 -10 -2 7 2 12 18 12 43 39 46 23
32 42 105 138 63 115 42 37 -5 37 -1 21 154 142 59 99 149 117 123 181 224 104 86 23 8 91 19 1 53 44 49 27 2 0 4 13 20 -2 16 15 20 25 40 17
105 111 12 48 123 142 140 32 41 48 59 31 216 159 96 143 160 146 168 195 215 265 114 86 96 89 129 20 76 51 39 42 23 11 13 11 11 11 7 23 19 29 54 38
85 61 15 42 93 41 79 120 46 60 43 55 107 155 205 156 161 155 165 186 220 247 305 260 290 192 52 57 48 63 38 28 28 32 20 17 19 23 20 20 16 11 10 42
31 68 -16 7 121 130 175 65 30 63 39 61 71 280 189 145 130 151 174 181 172 160 170 308 249 126 255 305 220 146 56 45 40 48 46 34 27 23 23 22 16 23 18 14
86 77 76 78 60 92 137 69 100 50 48 78 57 150 155 175 242 231 192 193 194 178 179 175 236 180 259 388 330 201 222 92 99 62 53 49 40 34 25 31 27 31 32 20
101 90 67 98 75 24 59 112 113 105 68 42 82 81 64 115 184 272 217 199 203 213 195 162 175 219 181 173 316 385 290 385 261 196 153 75 38 54 41 44 44 39 49 40
103 59 91 63 181 189 58 50 101 124 84 81 78 27 97 134 141 174 201 217 212 205 185 176 165 149 119 128 141 243 294 282 377 356 191 286 91 41 82 89 50 47 64 62
72 82 92 86 82 119 175 80 147 177 139 77 96 217 194 186 137 181 169 150 169 174 190 159 113 91 63 58 103 125 201 239 272 290 348 316 276 280 151 57 68 71 75 65
87 50 75 104 44 55 106 52 42 68 141 101 81 147 103 75 124 189 171 178 177 184 190 188 176 158 145 123 72 38 37 121 197 247 294 254 237 239 244 215 141 108 75 85
88 95 49 80 61 115 104 189 110 82 100 187 221 186 99 135 189 222 255 205 187 181 174 176 168 154 151 141 138 122 72 -10 17 143 197 226 234 233 218 208 197 119 106 105
121 97 79 70 51 48 60 71 94 53 100 150 181 267 259 166 129 121 149 177 162 160 153 155 154 149 131 138 139 143 127 112 82 34 46 109 163 198 218 228 235 261 163 119
58 86 133 86 111 46 183 174 202 157 94 170 183 144 145 109 41 175 97 115 134 154 146 147 142 134 128 123 127 142 141 133 123 125 81 62 68 113 143 179 162 155 188 147
62 67 59 67 98 90 103 104 49 70 160 161 120 165 192 204 355 325 171 127 96 82 89 115 125 128 122 108 111 112 128 129 112 107 108 84 60 81 58 60 94 113 124 130
68 90 72 84 76 82 92 50 108 189 126 140 185 187 184 237 201 186 157 117 100 88 73 65 83 103 112 124 115 106 97 118 114 99 95 97 83 65 49 75 96 93 106 108
85 59 130 91 145 187 80 160 141 132 109 138 107 80 75 78 96 117 132 126 125 112 111 96 85 77 81 91 97 127 120 85 80 107 114 101 95 85 55 72 51 80 71 100
35 70 80 128 68 86 86 98 95 91 111 84 102 95 85 101 93 93 107 118 134 128 114 95 94 89 87 111 117 112 86 98 96 72 77 87 88 89 82 50 77 86 94 119
38 49 35 32 59 39 47 56 62 82 75 76 71 66 75 69 71 85 80 78 80 82 73 69 53 53 53 62 66 76 86 96 79 96 95 67 69 82 86 68 49 62 62 80
33 39 54 54 51 37 41 55 63 63 50 49 38 42 45 56 70 62 67 65 69 73 65 58 59 44 50 52 52 55 59 104 92 95 90 113 118 88 96 112 94 -1 -71 -30

GFSCGP_con_3kmhel_093.txt.gz
Helicity
127 96 70 67 78 -11 -26 -4 85 107 88 158 4 130 67 -23 -6 -10 -59 -31 8 81 89 85 132 227 144 96 141 77 61 27 8 -25 -21 -14 -3 -8 -3 21 5 -2 2 1
117 82 45 81 132 89 6 -23 270 245 209 227 30 79 90 59 -2 -5 -10 8 101 104 80 102 186 202 210 136 103 115 88 57 -3 -28 -42 -26 -0 -12 -25 3 2 5 40 1
65 108 22 96 132 118 74 53 58 128 149 152 109 66 21 8 45 80 110 122 136 168 120 92 168 217 211 162 92 157 88 54 -10 -4 29 -25 -17 19 -11 -18 10 13 25 18
72 54 47 40 96 103 66 57 60 153 142 56 127 18 91 -4 -33 21 65 113 144 107 139 100 102 266 239 181 129 163 92 26 -20 38 -5 -16 11 -24 -26 -42 -13 13 13 33
66 126 54 21 94 55 71 71 97 58 46 191 26 64 -23 -27 7 -10 30 66 67 65 105 68 100 269 262 233 180 174 121 30 -45 42 14 -5 -23 -12 -34 -8 10 21 13 37
79 51 76 17 30 43 61 44 40 71 100 121 56 171 -4 98 39 70 -13 3 31 55 108 99 148 209 273 230 209 212 161 49 -15 4 14 24 -31 17 25 -15 6 1 -4 25
77 86 41 25 41 37 58 59 125 122 110 66 4 150 98 160 158 65 96 80 -4 -0 19 98 176 146 219 242 231 185 182 88 13 12 -12 36 -9 -4 12 6 -14 -20 -17 3
124 119 62 46 84 46 90 86 62 100 88 75 103 144 92 -4 116 144 243 71 62 84 166 192 209 157 223 220 237 143 157 120 41 24 -14 -6 26 25 -9 -13 -7 -6 -1 4
32 48 21 101 22 74 115 132 48 -19 18 39 110 252 260 170 235 291 79 91 -35 14 86 101 220 164 136 177 231 172 127 88 71 34 22 34 -7 -19 -29 -7 -16 -26 12 -1
69 56 99 57 69 76 67 110 49 64 116 83 58 106 60 134 179 220 175 188 258 237 223 129 86 87 311 319 344 209 183 81 90 55 48 32 19 -14 -47 19 -4 35 53 21
183 127 157 123 113 102 82 140 59 47 57 8 46 85 187 199 239 231 204 158 202 239 303 266 270 365 229 306 346 432 301 197 100 65 95 63 45 16 -8 -19 18 70 79 43
182 95 158 137 129 73 98 107 109 80 103 21 66 105 317 173 189 244 218 135 184 171 225 327 344 328 210 334 179 192 206 158 220 118 62 55 70 56 27 -13 -16 19 74 67
119 158 185 121 68 88 87 122 178 99 31 30 32 19 154 35 103 149 225 102 101 100 147 216 287 286 365 55 107 206 140 125 185 170 138 88 74 81 40 29 -22 -18 55 57
26 119 78 155 166 129 128 143 127 130 86 168 70 106 100 200 233 207 181 131 105 123 122 140 265 282 188 103 97 122 152 212 265 79 72 108 128 86 65 78 50 6 5 24
41 171 173 83 136 157 212 96 173 107 -15 -30 17 68 188 253 180 130 135 118 126 135 130 158 150 145 155 175 151 83 109 146 108 59 61 85 131 83 172 101 42 48 40 50
124 100 212 233 96 104 226 134 126 56 54 -12 67 142 210 210 165 156 167 142 155 165 178 128 122 124 115 122 127 122 146 152 122 62 114 147 83 170 70 -15 103 154 85 65
78 70 65 170 219 110 254 234 126 172 67 46 67 100 143 47 101 134 155 210 222 184 153 159 134 147 161 96 69 47 63 131 170 180 220 210 235 224 149 31 93 173 195 159
71 98 165 145 147 244 74 73 160 100 43 94 201 186 117 133 108 139 217 192 188 187 171 118 115 135 132 134 156 24 -12 6 61 135 172 161 204 216 179 157 155 155 133 130
91 86 136 160 273 228 121 62 84 86 101 86 133 148 347 412 404 179 202 172 149 193 190 160 93 110 144 124 174 145 75 84 106 122 103 82 108 146 149 140 152 128 136 121
92 128 61 120 221 187 143 130 156 95 160 203 263 329 329 292 345 203 112 160 196 169 157 155 148 122 152 154 154 164 128 112 123 134 142 138 127 120 104 98 141 160 118 137
87 137 69 55 135 54 69 111 93 159 320 139 237 241 247 327 211 123 221 246 187 113 119 149 176 147 135 163 159 153 136 130 102 96 105 112 115 120 104 97 89 104 120 145
59 62 73 78 130 146 136 103 128 123 300 356 320 338 346 353 426 461 397 343 237 210 196 201 181 181 164 164 161 165 149 122 124 142 107 90 82 85 86 99 102 101 105 100
106 77 94 122 151 131 167 146 172 198 249 329 358 362 371 379 385 369 340 298 304 292 255 190 168 150 134 120 124 160 131 124 127 134 158 167 135 108 99 83 95 106 115 85
150 128 117 129 153 109 155 226 179 134 175 241 321 459 415 369 363 299 302 304 260 237 215 175 138 125 118 116 125 125 85 96 103 126 158 211 210 234 226 203 156 143 104 82
69 128 116 179 112 110 132 144 136 163 169 190 202 274 300 288 246 246 279 244 216 143 119 121 117 120 104 95 96 89 81 75 79 80 103 106 94 102 125 146 162 198 193 127
130 165 169 86 143 169 114 118 126 137 176 199 172 200 225 210 247 224 197 161 128 89 93 81 88 87 95 89 79 69 62 62 77 82 74 69 61 93 87 74 62 81 160 203

GFSCGP_con_3kmhel_096.txt.gz
Helicity
179 134 123 143 68 8 44 99 34 100 116 90 88 23 69 28 -6 -53 -54 -109 34 74 127 168 155 106 95 93 29 -1 59 33 20 -2 27 6 4 -10 -11 9 12 2 -12 -12
217 93 51 127 80 16 30 81 54 84 81 161 100 69 55 52 31 16 -21 -14 -1 36 111 216 119 114 143 74 76 60 34 37 8 -22 -26 -13 7 2 5 18 15 -1 2 1
98 57 83 113 100 68 77 101 103 77 243 166 87 13 90 8 85 50 8 39 35 137 166 245 258 183 180 142 117 104 79 32 22 22 2 12 22 16 -1 -7 -15 6 4 -0
53 15 122 149 98 92 90 136 86 179 229 128 70 -53 -17 -64 42 67 54 79 53 176 215 235 255 209 218 186 154 144 113 71 34 26 -19 -18 12 10 6 -9 -17 2 22 20
70 99 126 166 138 147 84 50 52 167 268 169 24 42 39 64 44 16 52 74 98 102 233 232 244 243 195 229 189 166 120 104 76 33 -28 -16 -6 -21 6 -9 -19 -3 21 18
85 61 63 135 109 143 127 56 170 197 105 85 46 71 -4 -1 12 3 21 108 152 161 163 230 209 242 208 205 199 168 122 81 92 60 30 2 -7 -27 15 6 -14 -5 19 4
129 99 79 62 137 65 50 84 167 135 108 61 101 86 39 -15 74 76 -53 15 208 245 175 193 183 201 218 225 212 168 154 76 110 94 46 -4 -18 1 -15 -8 4 3 -4 9
163 179 111 75 79 56 48 45 99 171 99 66 49 58 83 102 51 30 23 80 80 223 213 202 136 199 252 247 256 180 152 118 101 121 84 27 -9 18 -31 -12 -21 -14 -12 -8
125 133 91 46 46 46 56 81 35 92 59 72 114 107 159 156 184 103 103 80 109 51 166 111 203 220 166 245 251 214 145 120 101 85 104 42 17 31 -7 -24 -15 -6 -13 -3
44 147 71 83 43 98 54 33 140 146 112 47 110 97 95 220 260 145 137 107 -103 -3 128 203 197 291 319 289 250 238 126 114 66 37 51 79 51 21 -8 28 2 -2 -5 11
120 56 141 59 71 91 181 142 122 82 85 53 114 148 92 162 200 215 215 120 26 26 134 221 260 305 411 410 414 319 237 172 141 73 30 33 36 38 13 -1 3 7 14 14
142 49 125 186 248 55 46 61 89 102 139 40 74 134 183 317 277 149 140 108 44 102 156 189 248 276 407 357 304 329 258 257 218 120 59 44 24 35 35 1 5 24 9 34
160 87 158 222 189 183 90 88 57 86 148 67 150 103 142 188 174 96 39 70 78 74 131 161 299 330 304 181 55 187 134 226 199 198 151 97 70 36 21 25 -6 34 29 35
104 128 124 252 233 169 92 107 64 101 151 109 139 85 104 129 156 133 126 89 105 135 109 159 200 208 248 217 115 102 -46 31 129 163 78 46 133 111 62 34 30 18 34 29
91 154 214 302 239 187 100 131 99 133 111 138 -12 43 48 177 155 146 99 110 111 132 134 172 215 217 194 130 88 68 30 72 92 38 59 26 90 97 125 153 76 44 31 22
90 156 135 340 319 295 200 176 107 129 139 154 64 138 116 126 163 143 140 141 148 151 166 176 216 232 200 143 113 93 98 113 97 176 198 164 90 54 52 59 89 74 97 96
102 86 113 172 172 282 225 229 206 194 140 133 81 2 160 135 138 128 159 191 208 168 150 155 190 175 152 141 110 121 141 140 127 139 -12 71 103 71 89 83 -12 50 89 77
91 100 129 103 184 373 153 87 102 155 157 139 174 114 136 112 157 198 213 222 159 108 105 112 141 176 189 66 71 89 107 134 181 210 220 185 176 149 10 46 -30 21 46 76
37 62 103 134 90 153 275 79 104 109 232 128 191 179 212 269 308 220 194 180 130 103 87 110 125 141 176 159 117 130 147 147 161 177 166 151 156 185 133 60 16 -37 26 5
113 107 83 120 114 -21 60 6 87 54 151 61 135 211 289 337 319 171 183 178 168 165 140 165 187 203 203 180 170 173 167 165 182 155 140 129 120 129 127 156 187 161 109 54
73 126 105 89 107 144 165 194 149 164 148 132 183 243 273 259 209 235 285 199 184 181 191 220 218 198 176 160 137 164 166 181 153 142 150 153 148 136 125 130 118 119 138 165
58 50 79 83 92 125 157 155 146 139 156 225 225 320 365 286 257 240 262 250 274 317 293 229 205 179 152 121 98 103 114 116 122 136 152 182 200 192 197 186 196 213 195 181
123 73 52 53 71 81 108 106 124 114 344 311 332 296 315 433 452 467 415 397 326 274 240 180 144 136 124 99 80 99 77 61 75 115 159 169 167 191 197 203 235 243 265 247
149 170 125 96 131 127 124 108 120 148 210 224 295 354 418 476 461 464 452 410 371 298 246 172 136 99 107 94 86 73 93 95 104 114 126 134 146 184 191 170 175 186 216 213
52 91 105 133 108 129 117 100 59 95 121 160 177 180 237 348 362 376 378 334 259 212 171 149 126 125 102 88 73 58 65 90 119 121 117 121 124 142 148 138 128 137 135 92
80 79 98 96 154 148 129 109 96 51 44 81 150 211 232 269 279 306 261 195 160 143 153 155 125 111 93 87 84 89 82 79 91 115 122 112 105 102 87 83 110 70 67 92

GFSCGP_con_3kmhel_102.txt.gz
Helicity
219 221 91 103 117 103 113 94 114 103 85 48 57 34 119 20 -2 17 -48 0 8 3 40 42 26 30 16 -7 25 0 2 4 13 11 -4 -8 -11 22 29 16 15 18 20 5
235 90 96 112 122 116 155 88 111 89 54 93 136 84 68 60 62 8 27 -5 50 34 27 35 58 9 40 22 37 18 31 42 11 8 12 4 14 29 36 31 22 19 17 17
140 67 116 146 154 118 86 79 37 38 16 42 60 16 27 61 68 9 -19 34 54 82 101 84 58 68 61 49 61 18 31 52 31 3 27 59 36 24 25 32 18 8 4 11
98 86 97 140 149 110 78 56 75 102 68 19 -80 -59 -81 -17 99 127 -40 2 19 96 105 158 67 106 108 42 19 15 12 31 52 51 22 19 9 12 21 17 16 5 -2 -9
139 76 102 105 117 92 86 123 111 82 136 92 53 25 30 52 2 27 -54 -6 54 62 118 84 101 92 114 48 38 10 8 17 32 61 32 11 6 4 13 15 15 13 5 -2
110 122 80 70 96 86 98 256 274 149 166 93 61 42 37 143 119 42 35 -13 -9 57 66 111 121 79 61 29 34 57 53 21 32 44 38 10 8 3 -1 9 13 17 5 -1
94 89 108 97 154 199 173 222 195 158 157 103 73 95 29 39 10 111 102 69 45 68 106 89 82 58 48 40 56 77 101 75 43 27 18 11 -17 -10 0 -1 8 15 15 5
83 139 85 85 119 172 207 176 239 201 134 98 105 93 70 54 -8 -28 58 131 199 103 126 116 113 92 59 24 41 72 90 82 93 54 20 -1 2 39 23 19 6 5 20 18
113 188 151 85 99 152 161 197 156 149 154 133 142 95 77 104 110 103 138 209 118 122 165 126 162 135 132 41 42 41 96 59 109 96 67 45 45 35 30 18 18 -1 -3 14
56 154 150 142 97 115 108 147 246 268 199 164 168 134 95 80 171 176 141 178 180 160 167 144 118 152 127 151 127 71 95 136 77 89 78 60 42 37 50 28 36 20 23 17
30 70 181 133 127 127 174 204 212 199 239 194 141 111 61 40 147 212 173 156 113 104 90 132 146 161 187 94 98 74 150 161 36 48 87 69 57 53 57 46 35 34 23 28
34 29 128 187 106 96 129 133 144 219 247 262 188 132 90 87 131 170 163 141 168 227 267 190 140 182 226 113 133 158 207 224 186 104 72 77 66 56 49 51 53 42 29 17
20 63 124 208 133 167 166 169 157 154 196 195 215 172 97 95 101 116 99 117 144 152 182 214 216 186 285 278 194 73 129 199 200 158 171 144 110 97 95 87 60 41 32 31
69 54 59 121 134 171 257 250 165 183 216 178 183 152 77 42 77 112 139 174 200 149 136 168 229 229 163 140 73 106 99 101 153 145 211 148 91 87 89 82 84 73 56 38
94 69 76 134 165 108 201 246 202 152 150 178 122 85 5 29 83 124 115 138 161 150 158 143 168 260 243 106 90 34 40 91 108 131 179 161 107 113 100 73 64 47 35 79
179 115 100 133 133 143 220 310 261 164 150 177 167 171 164 167 169 137 127 97 106 135 115 150 190 224 242 226 169 170 140 97 37 2 36 103 68 53 118 98 91 61 39 24
171 168 142 106 156 141 212 265 231 161 122 136 146 107 248 222 147 131 137 131 101 98 122 201 259 253 248 265 238 283 218 186 177 180 165 84 126 132 106 53 61 122 91 42
70 159 168 135 146 114 133 94 181 133 185 191 160 126 214 241 231 156 161 181 137 149 168 184 236 270 280 272 266 265 297 276 242 213 176 176 184 214 177 229 76 61 99 115
17 113 147 156 140 148 144 175 172 235 180 110 131 172 191 262 299 237 165 182 145 125 161 138 146 175 190 194 171 212 248 281 282 288 250 208 140 117 85 62 104 58 115 162
36 63 38 53 113 103 88 122 164 197 251 88 117 161 186 211 283 234 213 182 155 123 110 93 94 110 152 162 151 148 141 143 144 139 148 170 153 143 151 114 61 29 14 97
41 43 39 73 90 94 111 152 24 195 199 102 63 148 159 154 171 226 240 233 167 104 125 110 125 119 86 62 69 90 94 106 78 83 97 123 124 131 117 108 96 80 111 122
66 67 61 71 73 78 113 103 73 47 33 39 99 183 238 192 246 277 234 172 116 125 128 107 114 99 90 71 61 60 76 57 69 79 102 127 139 134 131 132 141 163 148 154
54 49 51 44 44 43 75 120 98 53 47 116 192 250 246 224 284 265 163 114 109 152 132 107 113 121 120 92 47 66 64 65 81 115 138 147 163 177 169 157 157 166 165 159
85 68 61 76 55 66 64 55 51 46 60 115 214 242 209 264 285 235 196 108 110 94 96 77 78 63 56 62 73 65 74 83 109 138 154 165 178 180 179 174 175 167 164 140
57 75 80 75 57 63 59 50 17 -13 59 155 186 224 238 255 206 193 207 146 106 82 80 57 45 25 15 19 29 38 59 91 129 152 167 178 182 188 175 160 153 143 153 149
72 68 84 54 62 71 51 72 48 -10 -8 54 131 131 127 173 214 181 164 132 118 114 108 102 78 67 46 61 63 73 88 95 105 136 151 160 159 160 162 155 138 151 140 138

GFSCGP_con_3kmhel_105.txt.gz
Helicity
156 135 76 75 102 73 48 43 28 71 110 78 65 24 94 -9 -82 -25 -62 -51 -21 13 32 20 18 29 27 16 14 11 -2 -8 5 -1 1 5 7 20 21 20 12 16 17 13
138 43 94 134 120 96 66 37 62 86 113 101 77 33 27 -11 -106 -52 -61 -39 -41 24 3 15 25 16 19 32 29 14 -8 -8 9 6 8 7 -5 25 29 27 20 13 6 10
80 66 111 126 121 89 90 73 31 38 54 182 116 116 41 67 35 18 -17 -43 -40 7 4 22 19 30 16 35 51 39 1 -9 0 1 6 17 26 31 27 25 30 25 14 7
82 86 90 124 96 92 67 77 52 53 38 28 43 81 65 62 44 -17 -28 9 -41 -27 -24 16 26 26 23 34 24 40 22 8 3 3 4 20 9 19 24 19 13 19 15 8
116 103 106 95 116 98 106 52 41 10 100 38 -63 -25 -98 -124 -51 -44 -41 -29 -13 -23 -11 12 32 71 38 20 23 33 30 18 15 13 8 4 3 9 1 4 6 12 0 4
119 131 98 75 88 87 92 122 124 91 76 42 3 -12 -43 39 158 103 -22 -42 -17 -91 -34 8 82 24 18 -14 -15 8 26 27 32 24 18 17 21 7 3 -1 10 11 6 2
109 113 158 116 103 126 94 68 107 81 75 70 52 15 28 4 48 104 69 21 -9 -7 -67 -4 -17 10 8 -19 -37 -32 -4 24 24 28 29 23 16 0 2 7 8 1 1 1
102 106 100 102 113 171 132 125 118 82 85 69 61 34 57 22 5 10 19 -31 9 -48 -47 -19 -18 23 27 1 -35 -49 -32 -26 3 25 32 25 20 18 6 12 14 8 4 -1
85 85 92 79 90 85 151 157 162 154 109 74 93 68 55 39 5 -6 27 -1 9 -60 -63 -25 -20 12 36 63 24 -1 4 -6 -14 17 40 31 26 23 22 25 25 10 9 9
69 136 80 95 88 101 108 96 130 157 93 107 95 102 82 60 59 33 22 34 4 -2 -47 32 63 -15 57 80 76 71 45 21 43 31 28 31 32 26 30 28 27 26 20 14
76 109 110 101 103 98 121 131 148 117 163 82 88 108 89 61 77 69 79 83 52 76 18 56 68 69 150 133 101 84 48 61 85 47 31 27 38 41 38 48 47 43 46 30
68 93 167 149 108 117 129 81 78 118 109 148 150 86 149 59 74 129 104 141 127 76 88 62 76 148 162 231 231 135 74 46 58 114 59 38 53 53 51 53 53 46 46 33
46 105 163 140 85 88 128 115 115 113 119 105 93 95 81 59 64 73 98 100 130 130 163 155 142 158 201 283 249 79 90 88 96 111 112 73 55 59 70 66 61 54 49 38
41 73 119 174 126 135 140 148 112 112 110 99 119 87 51 54 65 78 106 118 120 53 81 125 152 147 226 298 219 109 117 95 122 151 154 148 144 112 96 93 95 71 61 59
69 54 68 71 119 101 145 178 133 131 133 101 66 57 54 70 78 78 119 150 177 228 179 153 168 135 120 156 172 6 62 157 144 115 211 188 168 155 147 140 133 109 85 74
99 75 96 79 139 92 152 189 187 166 133 131 106 99 74 84 86 107 78 86 119 144 146 178 222 219 286 208 85 21 -31 8 67 53 116 148 192 199 139 143 139 118 97 102
94 98 115 89 123 113 124 160 185 202 176 164 110 135 74 144 121 116 114 98 94 113 117 165 256 309 339 229 71 66 82 101 110 121 86 84 110 79 87 122 143 121 97 95
62 59 87 128 120 105 111 122 79 107 158 161 120 67 58 151 207 174 143 138 106 106 159 195 198 263 297 279 287 268 243 211 202 179 195 154 126 99 81 130 167 137 121 86
43 50 85 147 158 152 72 114 124 157 155 113 85 47 136 243 297 215 145 119 110 125 169 203 189 229 271 243 264 279 289 255 247 181 160 150 112 130 103 97 103 85 91 75
57 47 26 171 169 138 123 108 132 60 137 58 61 42 113 194 248 210 170 151 166 140 178 143 132 184 210 184 153 205 200 219 213 178 171 169 126 107 95 76 84 51 59 79
49 56 12 28 67 116 61 131 49 87 134 148 113 47 50 61 95 169 214 256 199 170 160 139 143 167 165 140 161 169 159 187 132 114 123 147 136 129 118 116 131 108 65 94
54 40 36 65 46 49 100 69 95 82 88 43 34 62 63 88 120 195 218 218 188 151 154 142 127 126 101 77 77 84 95 81 81 89 100 106 114 106 111 114 104 114 99 118
36 56 69 51 66 69 88 96 89 96 101 65 14 53 125 112 108 186 194 174 148 101 97 73 84 81 70 58 49 62 59 54 70 87 102 117 130 138 143 148 160 159 150 143
41 45 46 38 43 57 80 79 85 71 46 34 52 88 120 111 115 180 199 164 132 101 70 58 54 57 57 46 42 46 46 55 69 91 108 115 137 153 163 165 175 181 185 180
67 50 49 56 48 46 56 70 74 75 69 71 65 88 107 88 112 131 163 227 155 84 54 51 44 35 33 32 38 40 42 48 69 93 106 123 135 157 168 186 183 163 216 205
56 54 46 47 64 72 70 69 50 49 42 52 75 68 50 54 119 150 173 163 262 142 51 52 32 20 17 24 29 41 47 45 54 73 85 105 112 126 137 142 168 235 197 200

GFSCGP_con_3kmhel_108.txt.gz
Helicity
80 118 62 27 56 91 60 27 28 37 40 23 26 1 81 -52 -18 -22 -7 -11 -8 -10 -5 -6 23 -25 -4 4 9 11 14 14 2 5 13 5 7 7 7 0 2 5 7 9
100 64 47 81 81 86 50 8 21 74 72 83 85 1 3 -157 21 -13 -23 -20 -5 2 14 -12 32 29 34 27 21 7 8 6 7 5 15 19 12 8 7 1 3 7 5 5
70 52 97 82 76 74 61 37 -11 7 56 47 25 88 113 52 61 39 -31 -15 21 20 3 -20 20 26 25 27 20 10 1 -3 1 4 4 15 18 24 18 13 3 -1 8 4
96 82 58 84 81 98 43 116 41 -29 -37 -8 13 58 72 3 -36 18 -6 0 -28 25 15 -4 -11 13 21 10 7 0 -9 -5 4 9 17 25 30 23 12 6 6 2 5 9
83 60 43 63 55 85 152 114 99 17 29 2 -18 29 142 80 12 -51 -1 -47 -19 -29 7 15 -9 -18 12 -8 0 -1 -12 -12 0 2 7 7 16 16 12 7 5 3 2 7
61 52 46 50 73 90 136 46 103 91 97 14 -37 -13 31 13 -38 51 -34 -5 4 -23 -10 19 -22 -21 -9 0 0 9 4 -12 3 3 7 22 14 21 23 10 15 10 6 2
81 71 65 104 63 81 104 54 49 31 26 53 38 -13 -17 -108 84 12 39 -12 -16 21 -18 -15 -24 1 -20 -13 -1 8 9 -1 1 24 15 18 16 22 12 18 8 14 8 9
79 73 79 74 70 48 62 46 106 55 22 17 45 12 18 -2 26 13 47 7 -15 -18 -27 -25 -12 -5 -10 -46 -21 -15 12 10 5 3 27 37 39 32 20 24 13 -1 24 6
71 87 35 30 43 66 34 69 37 109 16 36 39 48 0 12 28 23 -5 -60 -56 -49 53 -19 49 30 -13 -16 -21 -24 -15 -4 11 14 21 31 27 26 44 40 33 14 8 17
39 86 15 20 31 33 54 19 57 76 107 53 25 49 41 16 19 22 16 42 -3 0 -56 40 62 -6 14 14 20 5 10 12 13 13 25 24 30 35 27 28 36 48 24 20
41 117 30 56 57 38 82 80 41 37 32 59 27 7 77 30 32 32 19 63 17 14 18 -14 -38 28 49 46 67 89 46 43 32 27 24 20 29 40 41 31 30 31 34 23
43 46 47 -12 58 56 30 17 20 61 45 65 78 62 53 81 46 42 48 32 43 35 31 52 39 82 95 105 60 104 56 63 56 52 46 30 30 31 39 41 45 33 25 37
46 51 53 50 21 80 82 54 43 16 28 25 44 43 43 55 68 71 65 60 49 49 57 79 134 140 72 151 195 204 149 138 104 86 63 51 55 39 40 50 53 42 34 26
53 62 98 69 107 69 43 80 48 50 57 33 32 40 18 29 39 50 83 85 81 98 116 114 116 203 212 156 237 264 217 147 76 87 98 83 87 59 62 59 66 52 47 39
47 46 52 58 75 96 76 42 45 39 31 39 35 28 29 21 14 32 77 126 107 86 88 134 146 106 171 187 195 206 118 74 88 128 115 101 158 163 118 102 81 87 69 54
37 48 61 57 85 76 89 89 85 38 49 63 72 30 117 79 78 60 85 113 134 125 77 80 82 37 94 110 180 156 143 105 91 142 155 200 257 324 262 190 120 104 103 92
55 48 53 28 56 42 81 117 143 123 127 123 45 134 82 58 62 58 61 90 122 99 109 125 224 260 210 220 205 171 115 74 1 44 139 158 191 203 323 322 144 110 117 116
59 54 52 68 92 83 130 133 130 145 123 164 168 132 82 70 107 109 106 99 94 111 126 145 167 246 278 296 197 112 58 22 67 124 108 61 57 60 108 229 195 135 113 123
114 105 43 78 58 91 29 94 134 172 102 159 130 111 121 137 151 132 88 132 143 141 136 157 174 194 290 169 101 89 125 143 141 121 128 124 139 130 75 42 61 105 167 217
73 107 119 51 88 80 165 132 122 105 74 119 113 72 45 61 93 170 158 178 184 145 151 173 207 213 261 285 220 210 238 234 207 181 138 115 106 80 80 92 102 103 124 185
20 15 20 30 87 99 78 99 59 117 144 167 110 80 57 53 181 147 204 232 191 178 162 199 288 316 258 239 257 278 243 227 207 173 172 162 132 119 98 92 83 85 114 142
39 31 22 46 25 47 99 24 158 108 109 100 96 85 64 109 59 91 152 186 189 201 202 189 187 188 216 195 214 226 224 196 171 165 168 187 190 146 116 104 100 99 95 85
31 67 89 92 113 82 82 118 119 105 111 76 37 20 48 69 62 81 117 153 183 191 179 139 128 159 156 172 133 183 137 109 97 90 96 92 97 106 116 117 98 97 97 103
35 39 57 59 60 49 61 36 65 86 84 79 51 47 32 23 47 82 129 178 200 185 203 206 193 182 142 87 70 60 50 52 58 66 72 79 95 116 132 140 149 140 134 125
81 38 54 52 60 60 72 96 89 61 52 61 74 56 27 27 71 128 172 185 155 174 172 153 128 85 86 59 56 52 53 55 62 66 74 76 88 110 142 204 203 157 205 237
42 46 39 79 93 82 88 69 73 81 64 44 46 54 55 41 67 130 201 253 313 177 112 121 114 96 69 61 51 35 32 39 46 51 56 80 79 85 99 125 179 257 225 246

GFSCGP_con_3kmhel_111.txt.gz
Helicity
30 65 43 3 6 26 75 73 77 44 27 55 21 85 101 42 122 -7 36 -1 60 -8 32 22 11 23 40 12 3 5 -4 -7 -2 5 12 4 17 -16 22 58 -2 9 10 5
49 50 17 39 85 23 -4 35 1 34 101 57 73 62 43 4 24 -63 38 22 27 57 31 16 25 18 26 7 4 -3 -1 -6 8 10 33 42 15 14 11 31 -3 18 1 11
41 2 24 23 56 55 -1 -21 -10 57 98 52 22 55 177 5 124 100 36 26 58 76 37 -1 43 -8 36 24 6 -22 -12 2 -2 57 37 24 58 56 28 -7 -11 -7 0 12
46 24 4 48 54 30 20 -5 48 34 -24 7 -34 21 109 -19 65 58 107 4 53 7 41 45 77 -14 0 46 12 3 -21 -20 13 24 16 16 22 15 4 10 -5 19 4 -3
28 32 32 36 28 40 39 63 -40 -51 -23 -23 -91 -18 -14 6 25 78 105 38 43 22 71 5 48 29 54 30 34 25 -10 -23 -12 18 44 22 26 -3 -2 -1 43 10 2 1
53 29 16 11 19 43 54 21 92 113 -28 -36 -79 -106 -26 -86 -35 -22 36 15 36 29 84 60 57 -32 70 38 42 47 17 -5 18 18 25 27 71 52 65 37 7 9 9 10
24 13 4 31 21 54 62 23 61 60 57 20 -2 -30 -23 -69 113 24 23 33 80 29 131 39 24 38 56 62 39 67 43 5 -7 -13 13 23 41 34 16 10 18 -9 12 18
31 16 34 44 46 24 34 25 24 49 26 51 28 -1 57 18 35 92 73 103 -13 51 50 27 105 108 8 59 51 41 50 22 16 -6 9 39 24 24 24 22 -36 13 39 22
4 37 16 15 37 28 1 64 25 36 36 -13 -4 42 40 65 34 -14 69 89 -3 31 13 10 103 57 94 19 61 33 64 25 22 21 21 10 9 55 35 25 3 69 10 17
64 61 45 13 21 39 66 -3 42 33 70 39 35 94 54 8 31 42 62 220 49 -26 20 69 37 79 112 17 39 30 56 18 19 28 30 26 19 19 28 30 46 18 17 47
63 45 26 15 15 23 36 55 40 37 34 26 -4 43 207 50 21 40 -3 120 125 64 -39 -25 36 88 103 48 59 35 41 39 16 1 21 27 28 36 41 38 33 37 44 38
13 40 35 -15 21 6 25 20 24 43 37 53 34 -25 76 55 21 39 25 -3 17 136 28 9 -51 54 151 113 90 110 35 75 58 57 48 35 25 34 39 32 39 39 30 29
99 37 40 32 20 43 34 33 13 24 36 30 36 104 14 14 36 41 56 45 23 103 191 175 244 254 107 71 90 76 185 163 103 52 81 46 71 53 30 40 39 44 38 33
64 64 67 71 178 161 -2 33 29 12 31 25 16 57 18 27 48 68 69 78 81 80 125 104 175 189 166 163 186 179 228 230 222 228 167 93 94 54 57 66 57 50 41 44
18 67 43 30 49 121 34 -9 8 29 50 44 17 53 104 71 54 42 54 115 143 197 165 130 79 153 241 204 180 199 195 182 134 173 223 173 94 93 119 160 91 55 52 51
4 28 46 69 -15 143 68 21 42 10 22 40 50 10 90 108 160 83 97 86 87 113 166 144 105 101 141 133 185 178 163 151 160 106 74 139 106 124 113 171 151 101 77 92
31 28 54 83 25 9 28 35 37 32 19 15 44 81 103 2 22 43 75 39 77 75 87 154 202 177 53 50 66 106 112 120 131 104 108 166 205 297 347 327 227 197 147 131
18 28 16 42 135 104 108 165 90 91 105 120 76 122 87 92 65 19 8 43 69 153 143 112 148 211 203 168 115 207 257 255 183 129 57 86 86 113 185 257 406 403 286 197
51 37 31 51 42 66 237 145 139 169 156 108 157 65 112 87 39 58 58 55 74 103 115 133 169 273 378 389 312 283 214 178 151 141 124 59 16 33 28 67 135 232 183 147
85 49 71 -1 90 2 68 206 175 138 71 2 119 117 84 71 81 62 95 154 153 155 146 165 178 210 259 317 231 216 220 180 155 127 118 103 92 100 106 71 45 69 86 122
15 78 53 46 76 -13 -58 -78 368 174 162 134 160 41 61 96 202 126 147 191 181 168 173 172 198 240 239 263 274 251 229 215 172 246 209 186 127 84 57 51 97 114 120 139
18 8 -3 22 56 127 73 30 91 80 66 105 154 20 13 83 83 161 165 159 140 161 180 202 253 259 223 227 247 298 286 205 189 230 263 304 206 160 129 154 99 76 92 121
19 43 56 91 81 61 93 93 74 87 61 53 83 53 41 37 77 147 117 118 175 165 157 167 188 230 302 261 214 220 242 234 197 242 245 217 203 178 164 154 119 98 74 59
53 46 42 53 73 71 73 72 80 74 103 93 76 73 23 28 60 97 130 212 203 161 160 157 157 156 163 175 198 160 157 198 135 156 123 111 108 125 130 110 103 111 105 77
67 65 44 38 80 73 61 102 91 59 63 69 94 114 83 58 70 123 128 152 159 190 246 272 221 196 183 210 178 131 111 83 100 73 76 76 83 113 151 204 220 138 172 190
46 31 21 59 143 122 122 74 57 72 63 44 38 57 106 73 94 117 166 168 176 195 213 226 245 213 181 143 111 97 76 72 56 63 47 65 65 52 78 104 137 205 214 216

GFSCGP_con_3kmhel_114.txt.gz
Helicity
25 74 59 27 -1 24 7 14 61 70 91 73 51 129 79 50 103 71 62 55 133 13 45 5 76 137 71 -2 -29 11 38 26 -8 11 -5 12 16 3 42 12 15 4 27 2
25 59 59 12 40 62 103 -108 33 72 108 90 29 49 -3 62 121 178 95 112 102 131 122 10 35 107 97 15 31 33 8 4 -8 6 8 25 -1 39 7 2 8 6 22 8
26 -8 34 24 10 30 37 8 -6 35 122 46 14 135 36 58 153 246 202 92 52 162 16 51 10 70 135 67 31 29 -12 -23 -7 36 11 103 64 4 35 16 2 4 -2 13
28 31 -36 21 6 14 15 66 5 41 51 35 -75 12 48 6 61 140 210 86 41 191 26 77 -12 73 137 134 21 11 -16 -45 -10 30 26 37 1 -5 -1 -13 7 14 -8 10
12 40 36 8 7 14 76 -21 -82 20 40 15 -42 -23 46 51 29 42 106 70 27 -11 74 111 32 49 182 62 131 34 18 -32 -38 26 44 8 29 38 14 31 55 24 -1 3
47 -14 25 35 39 33 65 -4 36 61 18 -56 -71 -36 -89 -25 75 -13 65 73 89 128 13 148 2 53 33 72 169 75 29 -6 -17 -27 -16 38 38 27 33 17 27 7 -1 -7
36 31 46 20 24 34 13 -27 -40 -54 -23 -11 -6 -88 -25 109 -49 -26 13 64 36 -1 57 139 61 216 157 132 56 170 86 50 33 -6 -21 7 49 1 27 -3 28 37 8 10
12 12 -11 -5 21 21 -6 19 -4 3 37 31 9 26 -31 2 -20 34 18 11 5 35 89 74 84 144 112 -44 18 204 78 55 47 -28 -11 10 1 -17 -14 9 27 -26 -6 44
62 -1 -8 20 26 33 -28 7 2 11 -50 34 37 -6 27 4 -23 9 21 81 64 79 117 57 186 146 89 0 -49 286 107 38 32 10 13 34 37 41 46 32 23 61 88 66
42 67 16 -2 9 48 62 11 20 37 -71 47 -51 -74 36 6 -59 61 21 94 -1 131 43 -52 157 127 173 -28 32 221 149 61 43 31 44 20 20 26 20 28 32 25 71 116
47 67 46 43 14 14 26 74 35 32 34 -1 28 -24 51 44 -7 52 105 105 78 -29 13 67 265 70 1 6 202 218 129 51 42 49 38 42 35 37 37 35 40 45 58 29
18 56 31 17 -9 -7 26 -1 18 25 41 3 -5 -13 1 36 37 -1 133 54 122 36 -22 44 66 184 54 195 197 287 205 115 34 38 19 51 17 36 41 47 59 53 33 25
111 52 118 15 11 21 2 19 15 21 27 42 35 29 -44 -69 -31 18 -2 120 146 52 19 -1 69 209 337 275 299 208 51 87 67 161 -9 94 50 52 36 76 51 50 64 50
59 91 89 44 80 104 165 132 18 14 18 15 9 62 -26 -18 47 9 68 105 93 70 57 14 210 177 246 76 166 142 101 224 141 192 160 123 28 130 76 72 66 59 94 59
63 123 66 8 46 70 111 150 112 30 18 20 13 44 45 64 44 52 62 121 153 67 271 305 210 317 407 207 280 201 251 280 268 176 127 133 173 167 129 96 68 100 82 70
-2 17 57 46 -5 -15 71 -14 51 3 15 32 44 35 1 241 330 348 39 127 263 135 152 177 142 240 303 302 318 229 156 212 189 142 65 93 131 173 150 78 103 148 122 73
66 49 56 137 56 96 32 59 32 49 34 72 51 79 92 192 119 53 57 22 97 230 264 256 246 124 132 210 231 222 259 175 125 71 127 122 137 138 192 240 190 284 183 188
-29 30 49 53 47 64 128 120 110 125 42 183 156 60 108 7 -48 -38 72 52 31 119 182 256 263 255 132 96 90 126 190 182 161 164 141 139 162 175 203 278 347 392 319 385
52 85 46 0 22 182 19 93 115 156 270 71 114 -15 16 184 215 158 65 53 72 98 158 161 218 303 353 354 288 260 283 278 280 236 150 105 72 48 40 46 118 302 350 447
55 82 64 13 22 12 194 141 175 294 164 190 65 -42 115 193 182 104 69 129 102 101 114 131 191 274 352 410 419 434 371 344 304 266 173 129 93 45 6 28 38 74 133 124
54 42 20 55 4 -12 -9 100 142 143 193 144 215 34 -123 -80 60 125 157 186 128 106 122 140 169 208 246 281 303 323 247 279 267 249 190 114 110 85 78 126 132 116 129 134
-8 44 16 65 98 54 6 97 67 12 32 54 90 41 56 110 182 167 143 123 104 124 140 138 176 193 196 220 284 308 285 227 236 241 234 271 237 171 159 167 128 118 108 100
17 30 51 -42 7 22 48 44 78 112 73 68 92 -33 21 104 50 87 86 105 98 118 158 184 198 185 162 175 213 282 243 217 224 231 239 258 290 271 202 124 120 110 84 63
31 94 32 74 44 52 64 41 98 78 76 67 111 94 57 81 86 118 66 70 105 135 131 128 166 174 173 189 156 138 181 246 271 249 230 246 363 333 303 288 242 219 218 137
75 36 63 47 42 87 58 142 121 64 58 74 74 106 106 92 94 115 106 67 130 119 129 132 140 151 138 110 127 153 173 190 249 254 243 233 311 249 236 296 254 181 212 214
25 32 46 69 118 125 121 118 68 57 65 54 68 87 84 101 54 127 197 207 193 180 187 207 178 171 136 121 95 103 103 98 98 66 95 85 135 60 104 109 119 165 193 221

GFSCGP_con_3kmhel_117.txt.gz
Helicity
122 107 86 35 -40 -3 55 6 45 104 48 28 55 121 174 134 109 93 80 107 211 174 103 128 261 195 121 108 54 46 21 -3 -12 -7 7 -4 26 6 10 17 22 2 3 13
105 65 50 65 32 47 106 49 71 51 134 30 1 67 114 78 39 63 169 169 231 137 84 268 272 182 82 102 60 35 2 -19 -32 -17 33 33 -9 8 11 17 35 11 -3 3
47 123 30 96 19 -3 22 47 11 9 54 37 20 67 -14 82 -25 134 245 223 270 225 192 224 204 161 105 129 109 55 -3 -25 -10 -40 -8 63 34 -2 18 2 23 26 1 4
57 55 21 55 71 51 41 85 -28 107 13 44 14 46 118 109 56 189 172 225 180 194 189 204 170 190 120 77 139 58 -14 -23 -8 -27 -16 9 -8 -6 -8 -8 -14 1 6 -13
80 94 61 6 16 170 51 58 11 -55 50 44 -45 7 38 8 33 71 129 196 245 173 156 48 196 199 156 133 92 106 20 4 -16 -38 -14 -26 -23 -17 17 -3 18 5 3 20
54 7 27 37 35 148 69 -21 53 42 10 32 -67 -50 -29 -33 111 -29 84 152 205 111 112 -13 175 171 169 128 83 37 27 11 12 -0 -30 -16 -18 16 22 12 19 -0 -5 -3
62 64 28 37 22 65 71 39 11 6 -77 -7 29 -0 -62 238 -1 -35 -48 97 46 100 60 42 152 259 142 167 105 69 23 50 56 13 -4 -9 -32 -5 43 9 9 12 -21 -26
36 85 63 28 56 11 2 -5 -31 19 -44 -45 3 30 17 43 154 31 -83 23 107 16 48 60 88 183 125 254 233 105 107 9 47 32 -4 -9 -4 10 -5 -5 9 12 21 -11
31 15 25 6 12 37 9 -18 -8 67 -5 -16 -10 -48 26 -10 -14 -32 -62 -2 40 96 142 120 128 89 120 256 218 142 110 80 37 37 20 6 11 24 23 32 12 51 30 10
66 49 75 1 55 36 34 21 51 88 -30 -55 -40 -56 18 52 -13 41 30 -43 30 168 187 210 163 70 28 182 267 175 125 165 43 68 38 9 -8 23 26 40 41 60 17 47
55 37 201 88 85 25 72 43 31 13 50 -0 -74 -69 15 -6 66 41 -1 51 27 160 150 192 226 137 95 186 219 228 136 161 69 71 66 49 35 42 36 32 33 60 13 34
148 29 151 185 31 3 21 78 48 75 78 12 -11 -23 120 51 12 114 41 49 53 169 133 180 152 83 41 182 236 153 180 133 51 94 68 43 31 26 30 15 15 61 19 8
81 90 134 104 52 109 95 56 22 1 28 76 -20 -24 88 21 -97 -9 56 96 79 101 51 103 201 268 206 214 329 223 155 201 172 52 73 65 38 40 40 27 37 64 44 27
20 98 106 88 25 53 58 120 137 48 6 27 35 82 43 -45 -128 -35 -42 91 220 130 127 73 187 278 331 364 267 178 144 157 180 150 121 69 15 22 72 67 58 55 67 49
46 39 130 81 -13 16 120 94 86 47 28 22 8 35 117 60 53 44 67 61 135 168 108 256 355 340 326 299 207 155 196 93 240 178 111 64 32 60 70 162 116 72 85 76
36 91 98 112 53 63 76 91 58 -2 -4 83 -14 207 133 114 191 228 176 277 132 237 320 311 300 230 258 115 66 276 298 247 265 198 100 43 105 103 109 121 90 145 164 65
4 37 82 141 25 75 39 114 107 -27 -12 28 156 155 128 206 167 198 136 184 266 282 299 366 337 284 85 98 169 307 239 214 158 183 214 187 147 134 120 119 114 147 166 171
67 69 61 65 61 60 96 103 111 105 71 54 75 219 130 156 142 164 209 199 135 100 218 363 407 368 164 252 187 274 262 208 238 240 196 155 139 145 190 198 132 117 279 239
95 42 64 42 9 45 30 75 113 93 88 40 22 39 94 121 192 267 136 133 155 135 130 140 249 366 346 245 266 391 403 376 322 223 186 148 118 123 138 119 96 362 415 303
53 68 91 128 13 -12 18 63 51 64 75 143 -55 -21 46 35 107 134 147 136 111 81 51 107 220 319 381 383 289 329 328 306 282 253 207 192 163 102 76 40 38 48 111 147
-9 48 47 78 88 43 42 28 -2 92 56 55 -14 -70 8 58 93 89 128 140 82 49 60 110 181 260 336 342 299 296 243 269 268 239 198 216 188 143 140 92 82 67 45 80
24 21 52 50 98 51 59 35 9 36 18 27 10 -16 12 41 106 131 105 55 35 26 76 102 145 174 216 221 231 238 242 200 223 254 263 227 185 129 131 133 100 78 71 109
24 21 20 24 7 7 1 -12 -2 63 90 99 2 13 48 17 63 95 101 72 31 45 98 108 137 159 172 182 189 215 211 200 208 240 281 291 280 278 206 131 113 104 92 84
73 69 57 42 29 50 -9 101 62 69 86 89 47 -7 -48 80 69 66 67 79 107 111 111 124 125 156 176 180 188 201 207 217 246 276 273 269 269 274 312 259 266 227 217 187
65 44 65 67 34 -104 164 215 111 44 34 56 84 27 101 90 43 60 74 67 47 61 126 106 84 85 90 88 92 101 113 149 247 321 291 293 299 304 331 343 320 297 260 197
67 90 91 89 99 145 160 149 119 97 72 39 73 65 80 62 72 105 134 122 96 92 64 69 65 58 69 74 64 64 59 61 51 89 118 192 214 207 240 263 321 322 246 269

GFSCGP_con_3kmhel_120.txt.gz
Helicity
170 156 140 51 12 63 30 22 20 -18 -6 -13 54 43 175 269 156 112 35 77 145 119 236 156 128 109 93 45 46 -7 -26 -35 -26 9 -16 -18 2 -10 -6 -1 1 1 -2 8
204 87 43 62 73 33 35 -1 19 28 -3 -26 -38 60 78 226 156 45 130 139 159 286 265 220 184 172 113 128 108 15 -15 -23 -25 -29 5 11 -6 -7 11 14 8 -9 15 27
70 64 73 76 73 61 68 -23 -16 11 4 10 8 -27 113 79 67 175 184 197 162 325 322 236 230 200 170 182 146 54 -21 -26 -29 -37 -15 20 36 22 -1 5 -6 3 -1 -4
59 112 175 95 55 73 76 40 75 19 70 14 -13 -2 41 66 19 120 142 228 185 256 304 279 228 200 170 137 89 63 13 10 -16 -32 -42 -3 -6 -3 -19 -12 -15 -7 4 -7
84 160 128 79 56 108 71 -20 -42 -10 -3 34 -35 1 -1 74 77 58 117 180 271 255 253 242 199 199 115 114 58 77 56 27 13 -20 -23 -23 -33 -24 -4 -20 -21 -18 -11 -3
87 17 15 45 67 195 102 159 182 64 -2 33 9 -7 26 27 163 84 105 167 241 305 103 209 163 142 120 93 69 88 101 38 9 -15 1 -14 -13 -11 -6 -20 -15 -17 -18 -10
76 83 39 169 200 181 83 52 46 23 18 4 38 -13 17 -8 53 107 111 178 203 207 183 210 161 134 133 116 85 91 82 43 41 19 -8 -11 -13 -7 -6 -7 -7 -7 -18 -32
131 115 26 28 49 -18 12 13 -46 -6 29 -34 -59 -26 -6 50 45 61 94 200 218 191 147 189 139 175 140 108 108 76 67 58 47 45 26 -8 -9 -18 -14 4 -1 5 -2 -2
68 67 27 38 80 120 40 -11 23 31 27 -35 -31 -115 -126 10 5 53 116 208 169 160 72 182 167 169 165 154 123 126 71 52 66 65 46 4 -7 -5 26 7 28 -3 4 -5
42 31 56 71 143 20 48 -0 25 41 -37 -42 -62 -67 -182 -32 -43 -1 64 176 125 84 68 78 149 137 157 185 162 110 96 88 76 64 51 41 19 19 -8 30 17 13 15 23
63 27 108 41 21 35 89 66 57 4 8 -24 -11 -22 74 31 100 15 47 57 97 44 64 37 105 211 166 198 202 150 126 106 110 66 64 41 15 -19 25 16 16 18 38 25
108 3 138 181 154 -12 29 111 40 22 28 10 -14 5 20 68 69 80 -12 79 35 73 45 84 83 202 258 211 219 186 167 165 105 77 86 62 36 55 -8 27 1 15 32 31
120 54 119 179 131 133 98 131 68 16 5 -17 -9 29 13 110 88 80 33 -4 69 135 206 194 166 174 204 311 256 227 174 135 147 104 80 57 53 59 44 48 55 43 43 34
2 70 87 169 151 70 -4 125 58 55 85 100 41 43 33 62 54 -24 -67 -2 73 170 253 274 193 209 266 258 230 233 182 173 175 132 58 42 61 58 40 45 48 55 56 54
29 93 133 107 25 75 82 71 48 57 62 11 133 113 106 124 58 -10 -58 -28 18 141 140 141 209 273 272 230 268 289 289 281 228 201 124 83 109 84 62 27 65 70 61 45
27 110 109 111 21 34 111 78 29 63 124 71 89 82 171 118 185 155 96 112 198 176 133 146 143 273 305 278 319 287 272 224 185 137 169 143 153 99 62 67 81 105 125 155
36 38 94 141 114 55 219 135 46 58 36 60 98 106 144 188 129 131 141 189 157 201 243 201 149 214 391 391 284 281 197 123 98 144 181 160 92 93 29 36 63 57 120 198
54 85 77 95 140 147 12 27 20 57 36 86 74 114 106 105 121 138 124 143 202 227 251 263 307 225 241 339 348 295 287 119 146 156 101 76 130 109 64 88 107 104 211 278
35 44 108 82 62 99 82 66 61 33 34 73 105 104 117 142 34 39 92 88 119 113 90 160 139 139 229 197 175 225 145 183 174 240 222 216 219 187 169 196 185 254 320 374
77 66 58 79 48 26 53 28 32 56 60 11 -36 5 80 9 126 69 58 74 126 118 90 112 156 212 383 215 226 139 150 205 233 278 247 236 228 194 162 155 132 57 107 414
30 52 69 91 72 83 59 29 51 47 25 31 35 -14 -18 6 4 9 33 28 6 50 66 93 157 187 279 355 266 268 243 261 259 227 222 183 148 135 109 113 82 85 119 87
40 36 39 70 59 60 49 13 54 30 65 21 24 2 55 97 55 52 54 49 51 47 57 76 113 180 225 277 273 289 262 185 199 208 213 212 199 195 158 130 81 77 83 121
44 23 11 21 2 14 11 31 10 2 28 38 33 29 25 36 65 69 55 58 85 83 89 99 126 143 150 148 162 178 172 174 187 216 218 216 237 254 201 146 101 97 99 115
25 53 59 48 1 12 91 51 9 55 33 -4 2 24 51 48 85 69 42 28 38 60 86 87 51 107 128 129 144 133 141 182 227 232 238 226 274 276 276 226 170 157 155 131
48 94 98 79 79 128 116 24 43 57 60 27 -7 6 63 25 13 13 8 -9 5 34 53 41 104 87 76 99 127 127 143 168 193 199 208 228 229 198 227 251 261 221 213 183
78 84 90 55 56 100 60 90 131 83 74 59 38 -0 11 40 46 55 25 15 31 28 50 95 98 117 77 77 81 69 72 94 111 115 118 124 133 169 178 189 273 390 358 353

GFSCGP_con_3kmhel_123.txt.gz
Helicity
182 174 210 82 62 64 56 57 57 95 -16 -3 63 108 207 205 93 74 39 61 125 131 66 48 41 -15 -15 27 68 54 27 -10 3 14 -1 -22 -12 -15 -13 15 17 31 10 -12
215 128 75 106 65 76 33 49 71 57 -1 -72 -95 -61 75 118 72 96 45 77 122 121 127 118 32 7 8 34 55 7 36 7 3 22 16 5 -10 -0 6 28 15 16 19 3
122 69 51 86 101 83 93 62 -9 10 12 15 -9 -47 1 47 77 -9 21 110 99 152 214 179 133 16 3 46 77 5 -8 -7 -11 -5 -1 14 37 29 11 25 27 20 11 -3
35 36 119 82 77 123 99 -1 -16 33 73 21 29 12 -25 30 136 102 59 109 99 105 183 210 156 109 42 75 41 16 -7 -1 2 -21 -16 -8 12 15 11 12 6 2 -4 7
74 79 85 90 50 115 56 81 13 -3 49 56 23 23 14 39 130 101 109 113 174 185 159 202 162 158 72 100 79 37 25 22 14 -7 -17 -14 -10 2 6 -1 3 3 -1 -6
136 59 44 77 72 95 210 129 90 13 -5 40 11 -2 5 21 94 72 85 97 181 236 194 125 131 164 90 48 76 54 18 39 20 7 -6 -18 -12 -8 -6 -11 -16 -11 -3 3
68 53 58 111 254 283 162 84 27 24 26 18 -56 18 -25 35 26 135 102 127 174 181 218 160 137 123 113 75 47 98 45 31 35 41 22 21 5 -4 -7 -10 -17 -12 -5 -0
100 96 43 16 58 22 40 12 -9 -22 74 12 -30 -18 -43 -27 13 32 -39 87 126 219 241 183 137 120 123 90 51 101 109 55 47 42 35 16 11 -1 -4 -10 -16 -7 -8 -10
102 98 -5 9 41 78 35 17 12 21 17 -1 -30 -60 -52 17 89 10 41 171 218 223 255 150 119 111 123 85 98 94 97 44 39 8 42 46 22 3 -12 -0 -2 -4 -5 -12
66 55 34 13 72 51 44 35 37 42 -5 -13 7 3 3 -44 -47 36 89 224 349 302 309 214 120 64 91 96 117 103 85 81 69 31 4 18 16 -1 -7 19 6 7 3 -4
23 49 68 34 67 45 65 68 48 22 19 34 3 21 -21 -12 102 124 71 183 318 372 336 178 102 96 110 119 134 136 88 83 84 54 54 29 4 25 47 53 -8 -5 13 24
70 32 65 63 146 89 123 80 55 31 39 32 5 18 94 -47 62 92 99 74 184 253 285 125 89 158 126 136 126 118 117 124 99 94 75 68 52 62 67 44 35 42 33 32
36 44 112 174 194 199 126 145 154 118 78 41 1 29 -1 83 74 41 69 48 -14 169 159 90 100 129 126 149 139 135 160 128 145 141 113 101 76 61 44 46 49 56 37 28
24 53 83 123 119 53 83 128 110 93 77 47 37 11 83 175 100 87 79 31 46 28 41 77 126 149 135 165 171 184 200 162 193 166 125 105 86 68 50 52 58 60 63 50
52 103 108 63 59 95 36 48 114 74 80 61 57 -11 30 134 139 30 8 -6 9 46 74 76 123 192 174 191 211 189 227 223 201 162 135 110 109 86 75 67 71 62 72 84
67 101 103 177 172 65 92 92 48 60 70 51 35 56 20 95 143 91 62 70 77 144 76 125 11 136 190 195 235 260 260 261 242 206 176 153 137 119 94 76 87 78 60 70
43 71 152 162 119 135 126 121 25 -25 10 10 40 25 71 133 163 159 109 73 118 170 123 72 112 123 159 206 212 273 321 309 292 294 264 187 176 137 100 53 67 47 48 89
41 59 95 118 180 147 94 55 55 16 -18 -46 -33 -14 5 76 102 130 127 78 51 69 88 89 117 116 140 234 266 316 299 270 181 165 176 195 155 123 107 83 93 74 27 83
33 46 85 91 101 122 146 80 65 60 61 37 2 -27 -11 -12 32 64 99 103 73 68 91 118 123 161 132 125 223 275 263 245 276 57 150 124 111 61 61 70 59 89 140 208
74 90 74 83 75 48 49 61 53 51 66 40 64 39 44 5 138 46 23 66 62 77 80 98 92 113 186 142 87 35 244 189 181 193 162 101 75 108 80 63 67 93 128 182
69 63 76 86 68 54 57 65 72 74 18 45 34 86 59 84 65 46 33 47 51 64 79 84 110 134 135 140 110 133 97 112 133 138 187 241 173 134 129 111 105 94 83 79
46 45 37 60 79 61 81 80 54 24 44 30 37 40 51 41 84 109 91 59 61 72 70 75 100 100 132 198 265 224 172 163 234 269 191 183 147 109 110 98 121 96 80 83
39 31 38 32 19 17 17 40 48 36 43 29 30 35 31 37 44 78 59 62 77 72 88 79 64 97 99 131 186 222 168 162 161 182 192 148 185 226 174 160 164 105 89 99
38 49 64 58 19 20 39 78 49 5 40 26 31 30 19 8 12 10 12 54 38 32 79 96 113 131 133 123 159 157 148 176 188 160 169 202 199 236 246 269 206 116 85 88
61 106 91 73 49 54 38 67 10 24 37 34 15 14 20 -3 -38 -53 -51 -46 -25 20 37 62 78 107 147 149 138 120 130 165 190 191 175 179 164 169 180 233 245 195 163 108
103 108 135 71 48 72 60 82 94 78 43 10 15 14 11 16 -2 -30 -47 -35 -8 19 51 58 87 124 138 130 127 136 140 129 131 158 168 166 163 171 145 137 182 301 301 288

GFSCGP_con_3kmhel_129.txt.gz
Helicity
165 168 91 97 69 76 46 31 20 6 -2 -20 18 16 52 79 -9 29 17 -22 -9 9 21 15 26 32 21 6 -16 6 7 -5 7 14 16 16 1 2 4 11 16 12 10 -4
136 86 108 122 89 62 36 18 17 3 7 -1 -8 -20 12 48 44 0 12 -24 -5 1 -10 21 47 44 37 29 1 -6 8 -4 5 4 6 18 10 10 11 10 4 6 9 18
75 95 102 119 91 46 27 24 10 27 -3 24 3 6 38 8 86 61 74 14 -2 -18 8 36 42 59 42 25 18 -7 -4 7 1 -1 7 19 13 8 -1 8 8 3 -9 4
59 91 95 120 78 36 33 2 12 8 -1 -8 -5 26 32 24 -21 33 -30 24 -24 -29 -12 -6 43 66 62 27 16 -3 -3 5 1 1 -3 8 17 10 11 12 6 -1 1 3
48 57 80 91 55 37 55 31 8 6 26 -10 -46 -2 11 43 39 -29 -81 31 -38 -24 -14 5 50 66 35 35 31 20 -4 -7 4 6 14 12 13 24 24 17 11 5 2 2
32 51 68 81 81 27 42 61 62 39 21 3 -5 17 40 53 -6 -18 27 -6 -24 -33 -38 15 15 12 17 7 27 18 12 -7 -4 6 8 17 11 9 9 9 6 -3 -3 1
2 11 49 53 95 78 55 53 45 39 43 32 19 6 0 0 -25 -17 80 -22 5 -7 -65 -69 -54 -7 9 50 48 34 16 11 -2 -1 16 14 8 12 9 2 1 -4 -8 -9
14 14 19 36 35 58 29 18 41 73 66 53 17 61 52 3 12 -14 10 68 124 32 -38 -75 -38 -2 18 46 43 50 32 -1 8 12 8 9 5 9 14 3 -1 -4 -7 -9
7 -9 17 3 59 55 61 33 45 17 30 80 31 22 3 3 23 5 -1 66 48 64 0 -74 -50 -30 4 11 36 50 43 23 14 24 15 2 4 5 8 6 9 7 2 -8
24 22 18 36 68 82 30 79 55 20 50 77 0 -5 43 126 53 -20 -1 51 27 29 26 2 -4 -25 1 1 -2 24 45 38 30 2 -7 11 -1 -5 23 15 11 17 9 17
-1 32 50 21 34 50 67 44 51 36 30 28 76 8 20 55 34 -41 -121 0 66 128 16 51 67 40 12 14 8 13 11 27 15 11 5 4 19 15 -13 17 15 9 20 23
13 49 53 84 43 38 55 48 22 24 20 39 36 14 4 0 5 29 -62 0 -1 8 65 48 87 71 60 25 23 14 5 0 21 16 32 8 26 12 11 23 25 22 20 25
64 50 59 96 37 59 90 68 67 65 33 5 50 24 -4 5 24 55 19 -55 -24 54 61 130 235 98 98 41 33 36 26 3 -4 12 11 27 25 30 24 22 35 32 38 34
42 78 68 36 73 55 73 107 76 64 22 -4 33 40 33 43 34 53 32 -12 15 84 89 185 175 112 77 41 50 26 19 36 33 19 24 30 20 17 27 41 49 49 52 53
61 73 69 111 127 146 41 75 60 40 34 39 -7 0 22 42 46 40 26 -11 26 94 141 164 187 140 136 73 41 25 28 33 37 35 25 44 51 53 50 44 59 69 71 64
39 67 105 140 129 151 112 177 57 56 43 41 24 4 -2 21 43 80 85 54 20 48 137 44 93 116 116 124 102 55 71 40 85 34 17 49 80 91 102 79 68 80 81 74
44 42 59 91 96 140 93 135 105 53 35 39 33 62 55 41 57 96 115 108 126 39 40 -21 -40 -19 36 117 102 98 82 48 71 60 29 41 92 160 116 113 110 101 79 79
50 73 64 72 89 75 83 87 93 85 72 50 21 30 36 41 54 84 111 116 122 119 167 175 154 41 38 51 95 53 43 46 81 82 61 87 83 128 172 179 148 131 113 102
61 60 89 80 79 82 60 50 59 52 55 66 79 40 23 32 36 56 92 91 88 101 118 96 102 -13 -17 122 95 7 21 7 22 54 96 94 134 209 234 266 266 245 193 147
65 70 67 80 68 49 70 68 66 53 51 55 72 93 63 41 44 52 63 79 83 78 87 73 82 32 -26 -1 60 14 3 63 75 68 61 97 131 239 219 262 250 187 194 149
57 60 41 52 57 72 69 62 59 69 68 66 59 50 35 38 56 55 54 50 39 40 72 72 73 69 69 69 96 120 151 161 92 100 103 75 123 234 275 243 300 216 240 180
38 44 51 57 54 43 59 80 68 83 62 59 60 49 41 22 -11 -1 39 68 63 54 54 59 51 71 98 105 58 72 75 90 72 78 82 83 195 363 374 434 290 188 129 145
46 53 54 36 62 52 10 38 47 50 62 52 45 25 26 13 -1 1 22 46 57 61 59 63 61 62 79 109 122 115 109 103 124 156 186 188 117 72 -53 45 53 100 181 165
34 41 38 32 34 19 0 13 33 51 65 39 19 5 6 24 45 38 26 41 49 58 81 63 75 87 99 113 138 131 141 137 137 136 174 137 127 96 196 174 134 153 137 183
69 69 39 36 41 48 13 13 53 67 61 39 9 -14 7 20 34 42 45 37 51 64 60 67 89 107 125 134 165 148 129 106 161 138 131 138 124 125 92 121 151 128 132 69
75 77 69 37 52 54 29 31 55 70 40 38 16 3 8 3 9 21 43 49 54 60 71 75 80 91 100 141 176 175 127 120 105 127 103 102 103 84 93 91 144 216 141 113

GFSCGP_con_3kmhel_132.txt.gz
Helicity
32 50 15 23 1 112 67 54 61 29 7 -20 -18 -0 42 47 56 -30 39 10 -5 5 -0 12 25 26 25 25 10 9 11 3 21 29 16 6 6 4 7 2 -4 7 22 35
60 18 13 100 70 41 39 37 43 22 7 -30 3 -24 41 53 56 -93 -60 52 -10 -1 -8 11 25 34 31 30 16 3 17 17 23 18 14 7 -0 -7 -9 -3 -4 -4 1 20
21 15 116 69 46 19 12 33 28 64 -1 -20 -15 -26 35 23 27 -60 -73 14 10 -15 -10 7 25 32 34 35 19 2 10 12 24 15 15 16 23 23 4 -2 -2 -12 1 11
1 71 41 47 31 12 4 31 25 18 7 61 -5 25 -24 43 26 -10 -4 1 -13 -18 -9 -4 22 25 27 29 9 -0 5 8 8 13 5 4 3 1 -2 -6 -0 -14 -9 -3
48 30 26 32 15 26 59 50 18 20 23 33 1 1 22 31 11 96 5 -17 -4 -11 -8 -10 4 26 16 13 3 -5 -1 3 5 14 19 10 21 3 -0 1 -7 12 -10 4
24 38 17 2 13 24 68 27 22 15 12 60 25 -3 8 19 -6 14 51 -34 6 -13 -22 4 10 -6 8 -0 -2 -11 -3 -3 6 13 17 17 15 18 9 6 -1 -3 -2 -2
24 13 14 44 20 35 31 1 15 29 21 41 34 36 61 33 15 8 18 19 17 -5 39 -31 -12 -21 -9 6 19 2 -7 -0 -5 8 21 13 12 14 18 8 14 8 3 2
-10 45 25 17 -27 14 -7 -6 17 38 54 64 14 23 55 31 7 -2 13 20 9 20 -36 -48 40 -4 8 14 11 25 -2 -6 -9 -3 12 21 24 22 17 6 23 8 3 -3
-3 21 32 4 -12 6 17 21 37 31 39 41 -0 28 -6 -17 11 3 6 21 51 -39 -15 52 53 28 15 24 21 3 -0 -4 -3 -0 7 11 9 15 17 18 -7 -1 24 -1
7 1 13 32 26 12 60 6 17 15 41 61 20 30 53 59 26 2 -27 -6 14 55 98 67 63 36 32 33 28 10 16 3 3 7 13 12 10 7 16 12 -4 10 24 11
33 -15 49 36 7 21 23 15 30 32 55 66 77 89 33 81 -10 19 -24 -43 3 72 98 54 78 50 31 34 34 31 22 18 -6 6 21 10 -3 10 20 13 8 2 17 16
42 28 22 37 48 27 78 46 23 23 95 23 28 50 9 8 -2 1 4 -7 13 72 71 89 106 62 40 36 33 37 35 20 10 15 26 26 25 20 13 -5 19 18 23 22
45 22 -6 57 48 59 9 18 25 22 113 104 44 5 -20 -26 -13 9 22 1 -8 -2 72 67 29 79 77 52 43 42 37 20 17 15 23 23 22 17 14 15 21 20 21 15
45 41 53 16 82 49 47 -2 16 22 12 6 18 34 14 7 10 20 44 17 -3 7 -1 63 71 61 35 122 76 60 42 33 25 18 22 24 17 14 15 16 24 34 38 29
47 64 74 71 58 39 70 68 47 41 81 53 55 33 58 57 31 33 31 30 -23 -1 49 85 27 58 80 104 143 125 98 68 44 27 26 21 20 15 16 20 28 31 40 42
46 63 61 71 81 67 19 64 110 29 46 33 32 23 54 44 52 56 83 90 25 26 14 -43 -34 58 66 62 234 165 105 40 75 43 30 27 23 28 26 30 43 51 54 61
49 51 59 50 96 70 32 46 67 88 62 73 72 65 19 48 50 55 81 82 119 163 12 -8 -77 -164 -76 116 107 79 153 135 94 37 51 34 12 25 32 46 52 59 55 60
45 52 52 46 45 85 104 79 101 94 72 78 79 74 56 36 23 35 45 59 76 93 112 146 84 -17 -42 -46 19 90 83 118 124 78 74 38 11 20 45 46 103 142 83 75
49 30 46 59 14 51 54 56 46 57 37 61 66 52 53 45 5 46 43 33 53 50 66 46 82 34 16 -13 24 99 68 84 136 113 107 49 71 51 51 63 73 200 211 228
44 41 53 26 65 45 99 97 69 72 47 76 75 73 61 49 46 88 40 50 48 47 42 74 39 54 -21 -35 -24 9 46 186 160 94 39 50 13 32 84 78 167 253 314 343
37 33 24 19 27 39 92 72 35 49 95 76 63 65 46 61 104 72 40 33 44 51 53 55 70 46 26 29 56 98 89 91 51 58 -0 5 49 44 21 60 115 194 289 330
46 49 34 50 56 46 80 57 62 88 58 68 71 69 66 55 44 47 62 58 36 40 47 51 47 43 51 76 44 53 127 118 96 79 40 58 41 138 149 186 219 356 372 325
44 52 81 60 97 76 30 85 79 71 77 78 70 50 40 26 28 36 40 59 62 63 71 68 65 53 57 72 103 119 110 102 116 151 180 176 155 174 157 82 85 123 113 60
51 42 38 43 56 49 28 36 46 47 77 81 70 40 23 23 28 31 36 51 62 56 61 76 88 77 89 90 103 124 121 120 112 132 118 114 137 130 114 152 144 88 112 127
65 57 20 26 49 51 39 36 63 76 99 94 60 26 13 23 27 33 41 45 52 57 62 63 72 103 110 99 122 120 125 125 146 137 120 112 99 84 90 72 65 55 69 90
65 26 25 18 60 34 60 42 55 77 84 72 51 29 6 27 26 27 40 51 50 53 49 46 58 70 92 126 136 132 116 122 139 129 95 105 107 98 94 109 110 149 117 150

GFSCGP_con_3kmhel_135.txt.gz
Helicity
5 3 -2 -11 -32 76 30 10 64 22 28 -5 -12 13 107 113 38 30 -130 20 2 51 137 44 12 -3 50 54 27 4 21 31 14 1 13 14 2 0 7 12 30 27 32 25
22 -9 -16 -40 9 40 20 7 22 65 10 -12 -14 6 77 124 85 81 -3 65 33 24 43 60 9 7 28 48 14 44 4 29 36 25 30 20 5 -9 -2 16 -18 8 12 23
-14 16 -27 47 49 29 5 47 136 47 -48 -15 -19 -29 74 71 71 121 6 -78 -17 123 94 65 11 6 5 32 36 12 6 11 56 34 30 19 13 16 4 -8 -13 -7 0 7
-27 4 59 22 -11 -4 -6 105 26 39 47 31 -33 33 38 91 58 81 -10 -51 23 19 -45 8 45 19 12 39 14 11 3 6 19 26 42 6 0 -2 3 -1 2 -5 -5 12
30 24 25 -17 -19 8 58 10 -12 26 18 12 -18 9 47 133 26 52 -48 -42 13 20 24 7 96 -3 1 59 23 20 10 16 6 14 41 4 6 10 -11 4 25 19 -6 -2
3 2 -3 -17 4 26 18 23 8 -4 -20 11 -14 -2 2 3 7 33 20 29 7 55 -15 16 62 112 10 65 26 43 34 10 13 10 18 34 21 48 -3 5 -9 5 -3 6
38 28 -5 14 13 7 11 -12 -19 -30 -18 34 118 54 66 -45 14 84 91 0 5 16 14 0 74 149 76 42 26 57 46 23 9 5 4 9 39 47 73 40 13 15 6 -7
14 92 36 36 -33 -7 13 -10 3 45 39 31 166 27 66 23 35 -6 78 70 0 23 46 61 38 118 110 -1 36 40 61 26 22 15 11 16 23 22 23 -2 4 28 37 13
8 18 37 16 2 -46 12 1 46 29 8 17 37 131 4 16 16 -1 8 38 18 0 57 87 61 58 74 59 59 19 67 28 20 24 23 37 33 16 7 37 16 27 50 51
6 -10 23 38 -9 -3 25 47 14 38 27 32 -22 62 238 110 49 22 8 7 63 77 4 117 33 73 56 83 45 4 41 29 21 18 30 29 18 4 29 20 31 54 43 21
52 12 -1 57 10 35 29 -1 21 46 19 47 58 75 2 49 20 37 5 -9 65 41 77 91 65 90 60 58 77 23 30 33 23 27 38 29 37 31 38 35 22 7 22 27
20 51 33 53 41 79 -33 98 81 51 82 67 0 -10 85 19 44 14 12 17 69 79 84 189 245 132 104 94 100 43 29 30 22 32 45 35 33 37 31 23 25 33 22 7
65 0 9 92 45 120 67 161 35 -72 126 37 -53 -28 17 8 35 63 25 14 37 52 63 126 172 194 157 96 96 71 40 21 29 21 37 33 36 31 26 40 24 41 45 19
46 36 30 44 31 60 183 79 116 75 56 37 19 10 19 61 60 37 51 50 44 40 23 30 85 65 202 244 174 104 63 41 37 36 18 35 26 24 18 24 27 27 44 29
12 21 38 22 40 2 135 46 87 6 59 -47 -37 82 45 26 34 59 49 69 18 64 57 69 33 170 81 94 88 74 220 91 75 56 49 52 47 36 37 38 36 28 28 37
1 15 28 48 7 8 16 15 44 66 23 59 105 -38 43 24 36 48 39 51 141 61 27 -38 -69 -46 -49 3 111 129 119 206 189 142 99 84 68 48 41 40 36 31 33 38
55 28 34 9 104 153 26 21 20 14 -9 24 50 105 63 17 32 46 51 38 66 126 141 97 -18 -59 -45 66 123 147 200 239 153 131 131 91 67 51 48 42 42 45 43 50
22 14 38 27 23 55 52 73 102 40 51 52 15 103 74 83 40 19 26 49 57 52 137 164 122 -31 -43 -46 -12 139 122 167 232 140 146 128 62 54 53 49 42 51 67 72
29 19 3 14 19 22 -57 26 40 27 29 52 57 68 41 15 -10 9 22 11 30 38 61 92 72 50 69 13 11 8 37 128 154 169 108 167 130 72 84 52 55 66 68 83
8 39 41 11 42 27 96 62 74 76 56 20 27 58 83 52 2 71 14 6 5 32 38 37 51 35 13 22 11 -15 -38 12 187 205 150 164 176 98 106 90 94 92 86 87
24 11 8 10 4 29 77 57 51 31 91 149 86 86 52 91 119 61 36 35 46 48 37 44 54 69 54 52 43 39 19 8 30 189 260 127 144 129 107 28 56 80 97 139
20 32 4 26 25 46 75 68 63 100 64 69 100 99 77 85 59 65 42 58 74 60 50 52 53 60 53 61 57 84 106 50 83 119 124 142 105 126 71 69 123 140 122 180
22 13 51 48 78 114 66 100 115 60 53 62 85 69 65 51 52 56 44 53 48 57 66 69 79 70 72 72 92 104 107 82 97 157 164 102 78 70 139 118 113 131 115 122
4 39 77 64 49 70 81 94 77 38 60 68 69 56 53 50 40 33 44 49 62 52 36 49 65 89 95 92 81 75 115 112 88 81 122 132 139 111 146 159 135 123 112 89
111 71 -3 14 68 55 49 30 28 32 60 68 83 70 52 38 41 44 50 55 66 57 34 39 42 42 66 81 90 105 132 96 104 106 113 110 110 102 112 143 119 79 70 44
23 36 9 22 46 48 41 61 32 33 38 41 48 51 41 22 37 32 49 59 60 58 48 38 35 40 49 67 77 90 86 113 103 106 93 96 94 85 87 90 121 161 114 132

GFSCGP_con_3kmhel_138.txt.gz
Helicity
5 -2 -8 -47 -43 37 -32 4 4 0 -15 19 5 39 82 102 48 -56 -20 58 -25 66 43 69 36 45 187 133 127 47 62 104 26 31 34 63 24 47 31 40 47 69 53 75
25 -19 -35 -27 -27 30 35 53 24 -7 34 -29 43 73 194 127 115 -9 -23 57 97 69 27 9 90 24 174 133 41 33 33 61 -33 18 -6 -23 -11 1 9 54 19 21 17 12
8 25 -7 -28 -20 45 46 11 69 32 7 -41 -14 24 203 167 75 50 11 -20 7 18 10 101 -10 69 193 118 100 52 32 17 -27 17 13 17 7 -2 56 13 33 4 2 14
-13 -36 34 -17 -5 22 -17 84 43 26 13 27 55 14 188 202 118 53 20 46 -33 7 108 24 10 3 123 137 81 54 19 -52 0 18 -28 -25 -1 17 5 -2 -14 19 15 6
5 -29 44 5 -6 -18 21 68 51 55 61 -13 17 -1 33 298 71 109 60 131 -37 1 86 34 -63 -16 27 152 79 65 22 -17 -3 24 68 -41 -8 20 -29 -20 -4 32 -18 7
-15 32 19 0 -19 -34 22 17 -21 14 -73 -16 -8 22 144 146 53 112 122 56 -101 -3 -7 144 43 8 163 99 152 75 51 18 33 36 44 -32 -25 13 31 2 37 23 22 -1
52 26 -11 -10 -23 -3 11 -7 -4 -29 -24 30 166 75 85 1 -14 86 46 14 -63 -16 38 227 109 -38 117 156 92 162 124 59 32 5 -19 -24 -3 -74 63 32 -34 -22 55 25
38 91 83 22 -43 -19 4 -15 -5 34 43 39 178 109 27 -38 -53 37 129 89 12 -13 18 65 -11 81 78 123 137 155 116 65 44 24 18 21 11 3 44 55 44 -6 -35 23
-17 57 29 25 25 -6 11 48 15 28 -42 19 54 80 54 36 33 16 123 49 -50 -51 12 54 84 238 74 187 118 195 119 59 46 27 58 35 26 45 40 36 39 4 10 31
-25 8 6 44 6 16 -21 36 32 1 7 13 49 101 106 181 181 22 102 49 -97 45 40 86 132 122 112 143 212 177 174 74 28 36 74 45 35 41 58 54 29 25 74 37
29 -34 66 -11 26 7 14 10 62 45 37 99 -6 3 165 186 324 44 28 75 60 26 68 25 110 275 200 73 40 211 165 71 23 28 63 49 52 48 41 45 16 -2 28 52
11 26 45 41 62 19 1 42 52 99 -68 60 69 -17 -31 376 261 39 80 60 13 72 52 148 123 262 86 75 204 181 176 159 63 55 56 41 53 24 47 68 63 38 14 19
63 -32 -15 89 135 207 44 5 34 8 29 -58 9 7 -111 50 90 105 25 14 0 43 88 228 276 312 313 103 253 172 137 188 85 62 74 68 52 56 53 84 26 44 46 48
30 -33 21 21 66 102 42 45 57 32 18 18 -16 60 -23 79 169 85 78 110 42 25 -4 33 187 219 223 273 456 236 177 124 130 96 82 50 72 59 41 83 71 67 80 72
17 -9 10 21 42 56 -38 51 50 34 63 126 164 36 -79 -72 84 44 48 64 30 32 23 -1 92 152 286 196 224 65 270 339 191 107 59 81 83 76 61 63 71 57 63 58
-8 0 6 7 16 -5 99 -14 120 129 -31 -31 36 -21 42 38 7 -8 11 94 135 35 14 7 14 -10 8 86 -67 10 -15 222 207 248 117 107 101 101 87 81 74 76 73 68
28 36 66 16 58 94 21 51 107 65 280 43 5 21 131 171 1 -5 21 41 72 55 85 10 20 30 -9 -17 12 29 62 65 36 90 246 158 138 104 100 78 69 59 52 55
13 36 32 4 25 28 51 75 101 113 27 48 132 78 -19 81 44 33 36 56 63 39 71 75 26 37 13 8 -57 -16 90 172 185 134 124 161 149 104 75 73 62 66 56 66
18 26 15 0 7 32 107 12 85 134 37 102 8 16 -41 -2 0 49 48 40 44 51 88 78 96 79 26 1 -13 -33 -12 102 115 170 247 202 178 140 120 102 103 101 73 59
42 31 45 -18 24 57 110 34 40 68 86 137 109 65 50 74 109 71 27 19 27 44 50 69 68 60 48 33 4 2 -8 11 -11 10 107 237 250 215 178 191 152 150 142 104
35 23 0 14 22 52 20 14 31 62 91 -2 -15 66 69 155 126 117 51 44 69 59 56 63 66 69 77 61 75 42 30 9 40 31 62 154 246 331 296 234 259 219 172 152
37 36 19 9 -5 64 130 59 158 66 43 86 96 113 156 92 94 86 63 57 49 68 72 64 64 58 54 65 58 58 73 69 46 106 170 144 205 163 205 169 266 88 103 66
25 -13 36 30 71 57 81 38 23 35 34 62 77 97 62 38 71 78 63 79 73 77 64 71 70 77 77 69 89 89 81 57 84 77 99 50 25 64 102 105 112 43 101 76
25 60 55 97 78 20 21 61 54 27 47 115 159 93 71 60 74 49 56 52 98 73 62 40 55 71 84 80 83 81 81 53 69 117 167 144 142 160 150 110 90 77 97 98
95 12 98 97 92 55 75 37 36 33 90 96 139 108 95 70 77 77 64 62 121 62 65 43 37 41 44 53 75 93 96 109 123 137 130 138 99 102 119 132 147 111 107 72
48 92 55 69 60 88 114 6 43 26 39 55 65 80 62 67 85 59 93 104 68 49 35 43 31 35 43 47 50 72 72 73 86 83 97 91 80 81 62 67 95 134 103 126